GW2849 Weather Reports


time (UTC)temp
F
wind
direction
speed
knots
gust
knots
rain 1hr
in
rain 24hr
in
rain mn
in
humidity
%
barometer
mb
20260902231800 90 287 0.9 3.5 0.00 0.00 0.00 58 1016.0
20260902231701 90 323 0.9 3.5 0.00 0.00 0.00 59 1016.1
20260902231602 90 218 1.7 5.2 0.00 0.00 0.00 59 1016.1
20260902231501 91 223 0.9 5.2 0.00 0.00 0.00 58 1016.0
20260902231300 91 182 0.0 5.2 0.00 0.00 0.00 59 1016.1
20260902231100 91 207 0.0 5.2 0.00 0.00 0.00 58 1016.2
20260902231001 91 213 1.7 5.2 0.00 0.00 0.00 58 1016.2
20260902230859 91 157 1.7 5.2 0.00 0.00 0.00 58 1016.2
20260902230800 91 200 1.7 5.2 0.00 0.00 0.00 58 1016.1
20260902230702 91 185 0.9 5.2 0.00 0.00 0.00 58 1016.2
20260902230601 91 173 0.0 5.2 0.00 0.00 0.00 59 1016.2
20260902230400 91 246 0.0 5.2 0.00 0.00 0.00 58 1016.2
20260902230201 91 185 0.9 5.2 0.00 0.00 0.00 57 1016.1
20260902225959 91 190 1.7 5.2 0.00 0.00 0.00 58 1016.2
20260902225859 91 66 0.0 5.2 0.00 0.00 0.00 57 1016.2
20260902225759 91 254 0.0 1.7 0.00 0.00 0.00 57 1016.2
20260902225659 91 209 0.9 1.7 0.00 0.00 0.00 58 1016.2
20260902225603 91 265 0.0 1.7 0.00 0.00 0.00 57 1016.2
20260902225459 91 163 0.0 1.7 0.00 0.00 0.00 56 1016.3
20260902225400 91 132 0.0 1.7 0.00 0.00 0.00 57 1016.2
20260902225259 91 64 0.0 1.7 0.00 0.00 0.00 57 1016.2
20260902225200 91 173 0.0 2.6 0.00 0.00 0.00 58 1016.3
20260902225059 92 201 0.0 3.5 0.00 0.00 0.00 58 1016.2
20260902224959 92 182 0.0 3.5 0.00 0.00 0.00 57 1016.3
20260902224758 92 196 0.0 3.5 0.00 0.00 0.00 57 1016.3
20260902224701 92 213 0.0 3.5 0.00 0.00 0.00 57 1016.3
20260902224559 92 189 0.0 3.5 0.00 0.00 0.00 57 1016.3
20260902224459 92 189 0.0 3.5 0.00 0.00 0.00 57 1016.3
20260902224359 92 211 0.9 3.5 0.00 0.00 0.00 56 1016.3
20260902224200 92 158 0.0 3.5 0.00 0.00 0.00 56 1016.3
20260902224059 92 200 0.9 3.5 0.00 0.00 0.00 56 1016.2
20260902223859 92 198 0.0 1.7 0.00 0.00 0.00 56 1016.3
20260902223801 92 246 0.0 1.7 0.00 0.00 0.00 57 1016.2
20260902223658 92 165 0.0 3.5 0.00 0.00 0.00 56 1016.3
20260902223559 92 257 0.0 3.5 0.00 0.00 0.00 56 1016.2
20260902223459 92 220 0.0 3.5 0.00 0.00 0.00 56 1016.2
20260902223359 92 288 0.0 5.2 0.00 0.00 0.00 56 1016.3
20260902223259 92 208 0.0 5.2 0.00 0.00 0.00 55 1016.3
20260902223100 92 209 0.0 5.2 0.00 0.00 0.00 55 1016.3
20260902223000 92 278 0.0 5.2 0.00 0.00 0.00 55 1016.3
20260902222859 92 300 1.7 5.2 0.00 0.00 0.00 55 1016.4
20260902222759 92 278 1.7 5.2 0.00 0.00 0.00 55 1016.3
20260902222659 92 158 1.7 5.2 0.00 0.00 0.00 55 1016.4
20260902222559 92 319 2.6 5.2 0.00 0.00 0.00 55 1016.5
20260902222459 92 146 0.0 6.1 0.00 0.00 0.00 55 1016.4
20260902222401 92 327 0.0 6.1 0.00 0.00 0.00 55 1016.4
20260902222259 92 188 1.7 6.1 0.00 0.00 0.00 55 1016.4
20260902222200 93 203 0.9 6.1 0.00 0.00 0.00 55 1016.4
20260902222059 93 234 1.7 6.1 0.00 0.00 0.00 55 1016.5
20260902221859 93 216 3.5 4.3 0.00 0.00 0.00 55 1016.5
20260902221759 93 98 1.7 4.3 0.00 0.00 0.00 55 1016.5
20260902221601 93 207 0.9 1.7 0.00 0.00 0.00 55 1016.5
20260902221459 93 254 0.0 7.0 0.00 0.00 0.00 55 1016.4
20260902221359 93 188 0.0 7.0 0.00 0.00 0.00 55 1016.4
20260902221300 93 273 0.0 7.0 0.00 0.00 0.00 55 1016.5
20260902221200 93 110 0.9 7.0 0.00 0.00 0.00 55 1016.5
20260902221059 93 333 0.9 7.0 0.00 0.00 0.00 54 1016.5
20260902220958 93 319 0.0 7.0 0.00 0.00 0.00 54 1016.5
20260902220859 93 313 0.9 7.0 0.00 0.00 0.00 54 1016.5
20260902220600 93 162 3.5 7.8 0.00 0.00 0.00 53 1016.5
20260902220459 93 180 3.5 7.8 0.00 0.00 0.00 53 1016.5
20260902220400 93 213 0.9 6.1 0.00 0.00 0.00 53 1016.5
20260902220259 94 173 1.7 6.1 0.00 0.00 0.00 53 1016.5
20260902220158 94 188 4.3 6.1 0.00 0.00 0.00 53 1016.5
20260902220059 94 107 0.9 6.1 0.00 0.00 0.00 53 1016.5
20260902220000 94 190 1.7 6.1 0.00 0.00 0.00 54 1016.4
20260902215759 94 169 3.5 6.1 0.00 0.00 0.00 53 1016.5
20260902215500 94 190 0.0 2.6 0.00 0.00 0.00 54 1016.4
20260902215359 94 171 0.0 2.6 0.00 0.00 0.00 53 1016.4
20260902215259 94 145 0.0 2.6 0.00 0.00 0.00 53 1016.4
20260902215200 94 194 0.0 2.6 0.00 0.00 0.00 53 1016.4
20260902215001 94 348 0.0 4.3 0.00 0.00 0.00 54 1016.5
20260902214859 94 200 0.9 4.3 0.00 0.00 0.00 53 1016.4
20260902214700 94 252 0.0 4.3 0.00 0.00 0.00 54 1016.5
20260902214559 94 263 0.0 4.3 0.00 0.00 0.00 54 1016.5
20260902214459 94 125 0.0 4.3 0.00 0.00 0.00 55 1016.6
20260902214358 94 315 0.0 4.3 0.00 0.00 0.00 53 1016.5
20260902214302 94 167 0.0 4.3 0.00 0.00 0.00 53 1016.5
20260902214158 94 150 0.0 2.6 0.00 0.00 0.00 54 1016.6
20260902214102 94 196 0.0 1.7 0.00 0.00 0.00 54 1016.5
20260902214002 94 140 0.0 2.6 0.00 0.00 0.00 54 1016.5
20260902213759 94 254 0.0 2.6 0.00 0.00 0.00 53 1016.5
20260902213700 94 267 0.0 2.6 0.00 0.00 0.00 53 1016.5
20260902213503 94 247 0.0 6.1 0.00 0.00 0.00 54 1016.6
20260902213400 94 259 0.0 6.1 0.00 0.00 0.00 53 1016.5
20260902213259 94 243 0.9 6.1 0.00 0.00 0.00 53 1016.5
20260902213200 94 160 0.9 6.1 0.00 0.00 0.00 53 1016.6
20260902213100 94 225 0.0 6.1 0.00 0.00 0.00 52 1016.6
20260902212959 94 208 0.0 6.1 0.00 0.00 0.00 53 1016.5
20260902212859 94 98 0.0 4.3 0.00 0.00 0.00 53 1016.5
20260902212800 94 173 0.9 4.3 0.00 0.00 0.00 53 1016.6
20260902212657 94 173 0.9 4.3 0.00 0.00 0.00 53 1016.6
20260902212559 94 205 0.0 4.3 0.00 0.00 0.00 53 1016.6
20260902212358 94 286 0.9 4.3 0.00 0.00 0.00 51 1016.6
20260902212257 94 287 1.7 3.5 0.00 0.00 0.00 52 1016.6
20260902212158 94 294 0.0 3.5 0.00 0.00 0.00 51 1016.5
20260902212058 94 119 0.0 5.2 0.00 0.00 0.00 51 1016.5
20260902211958 94 202 0.0 7.8 0.00 0.00 0.00 52 1016.5
20260902211858 95 179 0.0 7.8 0.00 0.00 0.00 51 1016.6
20260902211757 95 231 0.0 7.8 0.00 0.00 0.00 51 1016.6
20260902211659 95 119 0.0 7.8 0.00 0.00 0.00 51 1016.6
20260902211558 95 289 3.5 7.8 0.00 0.00 0.00 52 1016.6
20260902211458 95 135 1.7 7.8 0.00 0.00 0.00 51 1016.6
20260902211357 95 203 0.9 7.8 0.00 0.00 0.00 51 1016.6
20260902211258 95 172 0.0 7.8 0.00 0.00 0.00 51 1016.6
20260902211158 95 184 7.0 8.7 0.00 0.00 0.00 52 1016.7
20260902210957 95 218 1.7 5.2 0.00 0.00 0.00 51 1016.6
20260902210859 95 298 2.6 5.2 0.00 0.00 0.00 52 1016.8
20260902210758 95 302 0.0 5.2 0.00 0.00 0.00 52 1016.7
20260902210658 95 311 1.7 5.2 0.00 0.00 0.00 52 1016.6
20260902210557 95 40 0.0 4.3 0.00 0.00 0.00 52 1016.7
20260902210458 95 160 0.0 6.1 0.00 0.00 0.00 51 1016.7
20260902210159 95 176 1.7 6.1 0.00 0.00 0.00 52 1016.7
20260902210059 95 190 2.6 6.1 0.00 0.00 0.00 52 1016.6
20260902205959 94 182 1.7 6.1 0.00 0.00 0.00 52 1016.6
20260902205858 94 276 0.9 6.1 0.00 0.00 0.00 53 1016.7
20260902205759 94 247 0.0 6.1 0.00 0.00 0.00 52 1016.7
20260902205657 94 173 5.2 5.2 0.00 0.00 0.00 53 1016.7
20260902205559 94 316 1.7 2.6 0.00 0.00 0.00 53 1016.6
20260902205458 94 174 0.9 3.5 0.00 0.00 0.00 52 1016.7
20260902205358 94 252 0.0 3.5 0.00 0.00 0.00 53 1016.7
20260902205158 94 180 0.0 3.5 0.00 0.00 0.00 52 1016.8
20260902205058 94 180 0.0 3.5 0.00 0.00 0.00 52 1016.7
20260902204957 94 175 0.0 3.5 0.00 0.00 0.00 51 1016.8
20260902204857 94 204 0.0 3.5 0.00 0.00 0.00 52 1016.8
20260902204559 95 321 0.0 3.5 0.00 0.00 0.00 52 1016.7
20260902204459 95 173 0.0 3.5 0.00 0.00 0.00 51 1016.8
20260902204358 95 173 0.0 3.5 0.00 0.00 0.00 51 1016.8
20260902204258 95 150 0.0 3.5 0.00 0.00 0.00 50 1016.8
20260902204158 95 246 0.0 3.5 0.00 0.00 0.00 52 1016.8
20260902204100 95 239 0.0 3.5 0.00 0.00 0.00 52 1016.8
20260902203959 95 211 1.7 3.5 0.00 0.00 0.00 52 1016.8
20260902203858 95 345 0.0 3.5 0.00 0.00 0.00 51 1016.8
20260902203758 95 216 0.0 3.5 0.00 0.00 0.00 51 1016.8
20260902203658 95 215 0.0 7.0 0.00 0.00 0.00 51 1016.8
20260902203557 95 145 0.0 7.0 0.00 0.00 0.00 50 1016.8
20260902203458 95 145 0.0 7.8 0.00 0.00 0.00 49 1016.9
20260902203357 96 271 0.0 7.8 0.00 0.00 0.00 49 1016.9
20260902203158 96 191 1.7 7.8 0.00 0.00 0.00 49 1016.8
20260902203058 96 204 1.7 7.8 0.00 0.00 0.00 49 1016.9
20260902202957 96 263 1.7 7.8 0.00 0.00 0.00 49 1016.9
20260902202900 96 161 1.7 7.8 0.00 0.00 0.00 50 1016.9
20260902202758 96 223 0.9 7.8 0.00 0.00 0.00 50 1016.8
20260902202659 96 97 1.7 7.8 0.00 0.00 0.00 50 1016.8
20260902202558 96 344 2.6 7.8 0.00 0.00 0.00 50 1016.9
20260902202457 96 224 3.5 6.1 0.00 0.00 0.00 50 1016.9
20260902202358 96 152 3.5 6.1 0.00 0.00 0.00 51 1016.9
20260902202258 96 38 0.0 6.1 0.00 0.00 0.00 50 1016.9
20260902202200 96 237 0.9 6.1 0.00 0.00 0.00 50 1016.9
20260902201959 96 189 2.6 6.1 0.00 0.00 0.00 49 1016.9
20260902201859 96 173 0.0 6.1 0.00 0.00 0.00 50 1016.9
20260902201758 96 150 3.5 5.2 0.00 0.00 0.00 50 1016.9
20260902201659 96 166 0.0 5.2 0.00 0.00 0.00 51 1016.9
20260902201558 96 194 0.9 5.2 0.00 0.00 0.00 51 1016.9
20260902201458 96 62 0.9 5.2 0.00 0.00 0.00 52 1016.9
20260902201358 96 355 0.0 5.2 0.00 0.00 0.00 51 1016.8
20260902201258 96 135 1.7 5.2 0.00 0.00 0.00 52 1016.9
20260902201158 96 197 0.9 5.2 0.00 0.00 0.00 50 1016.9
20260902201058 96 193 1.7 5.2 0.00 0.00 0.00 50 1016.9
20260902201000 96 18 0.9 4.3 0.00 0.00 0.00 51 1016.8
20260902200858 96 227 0.0 2.6 0.00 0.00 0.00 52 1016.9
20260902200658 96 163 0.0 4.3 0.00 0.00 0.00 51 1016.9
20260902200558 96 221 0.0 4.3 0.00 0.00 0.00 50 1017.0
20260902200459 96 175 0.0 4.3 0.00 0.00 0.00 50 1016.9
20260902200358 96 165 0.9 4.3 0.00 0.00 0.00 51 1016.9
20260902200257 96 188 0.0 4.3 0.00 0.00 0.00 51 1017.0
20260902200158 96 13 0.0 4.3 0.00 0.00 0.00 50 1017.0
20260902200101 96 205 0.0 5.2 0.00 0.00 0.00 51 1017.0
20260902195957 96 159 0.0 5.2 0.00 0.00 0.00 50 1017.0
20260902195858 96 231 2.6 5.2 0.00 0.00 0.00 50 1017.0
20260902195700 96 275 3.5 5.2 0.00 0.00 0.00 51 1017.0
20260902195600 96 213 0.0 5.2 0.00 0.00 0.00 50 1017.0
20260902195400 96 288 0.0 5.2 0.00 0.00 0.00 53 1017.1
20260902195300 96 194 0.0 5.2 0.00 0.00 0.00 51 1017.1
20260902195159 96 360 0.0 5.2 0.00 0.00 0.00 50 1017.0
20260902195100 96 182 0.0 6.1 0.00 0.00 0.00 53 1017.0
20260902194959 95 332 0.0 7.8 0.00 0.00 0.00 54 1017.0
20260902194659 95 212 0.9 7.8 0.00 0.00 0.00 52 1017.2
20260902194458 95 187 0.0 7.8 0.00 0.00 0.00 51 1017.1
20260902194359 95 30 0.0 7.8 0.00 0.00 0.00 52 1017.1
20260902194258 95 331 1.7 7.8 0.00 0.00 0.00 51 1017.1
20260902194158 95 158 1.7 7.8 0.00 0.00 0.00 51 1017.1
20260902193959 95 164 1.7 5.2 0.00 0.00 0.00 53 1017.2
20260902193858 95 208 0.0 5.2 0.00 0.00 0.00 51 1017.3
20260902193800 95 346 0.0 5.2 0.00 0.00 0.00 53 1017.3
20260902193700 95 193 0.0 5.2 0.00 0.00 0.00 51 1017.3
20260902193600 95 318 0.0 5.2 0.00 0.00 0.00 51 1017.3
20260902193459 95 157 0.9 5.2 0.00 0.00 0.00 51 1017.3
20260902193358 95 132 0.9 5.2 0.00 0.00 0.00 51 1017.3
20260902193300 95 296 1.7 5.2 0.00 0.00 0.00 51 1017.3
20260902193159 95 216 0.9 5.2 0.00 0.00 0.00 51 1017.4
20260902193101 95 290 4.3 5.2 0.00 0.00 0.00 51 1017.3
20260902193000 95 242 2.6 5.2 0.00 0.00 0.00 51 1017.4
20260902192859 95 201 0.9 3.5 0.00 0.00 0.00 53 1017.3
20260902192800 95 147 0.0 3.5 0.00 0.00 0.00 53 1017.4
20260902192659 95 198 3.5 3.5 0.00 0.00 0.00 54 1017.3
20260902192459 94 346 1.7 3.5 0.00 0.00 0.00 53 1017.4
20260902192359 94 142 0.0 3.5 0.00 0.00 0.00 51 1017.4
20260902192259 94 157 0.9 4.3 0.00 0.00 0.00 53 1017.4
20260902192058 94 246 0.0 4.3 0.00 0.00 0.00 53 1017.5
20260902191958 94 294 0.9 4.3 0.00 0.00 0.00 52 1017.5
20260902191759 94 262 3.5 7.8 0.00 0.00 0.00 53 1017.5
20260902191659 94 244 0.0 7.8 0.00 0.00 0.00 52 1017.5
20260902191600 94 304 0.0 7.8 0.00 0.00 0.00 52 1017.5
20260902191459 94 165 1.7 7.8 0.00 0.00 0.00 52 1017.6
20260902191358 95 329 2.6 7.8 0.00 0.00 0.00 52 1017.5
20260902191300 95 201 1.7 7.8 0.00 0.00 0.00 52 1017.5
20260902191158 95 190 1.7 7.8 0.00 0.00 0.00 51 1017.5
20260902191101 95 223 0.9 7.8 0.00 0.00 0.00 51 1017.5
20260902190959 95 215 1.7 7.8 0.00 0.00 0.00 50 1017.7
20260902190859 95 208 2.6 8.7 0.00 0.00 0.00 53 1017.6
20260902190759 95 175 0.0 8.7 0.00 0.00 0.00 51 1017.5
20260902190659 95 191 0.0 8.7 0.00 0.00 0.00 52 1017.5
20260902190559 95 277 1.7 8.7 0.00 0.00 0.00 52 1017.6
20260902190359 95 32 0.0 8.7 0.00 0.00 0.00 52 1017.7
20260902190300 95 178 1.7 8.7 0.00 0.00 0.00 52 1017.6
20260902190159 95 257 3.5 5.2 0.00 0.00 0.00 54 1017.6
20260902185958 94 225 1.7 2.6 0.00 0.00 0.00 55 1017.5
20260902185800 94 20 0.9 3.5 0.00 0.00 0.00 53 1017.6
20260902185558 94 292 0.0 3.5 0.00 0.00 0.00 52 1017.7
20260902185459 94 291 1.7 3.5 0.00 0.00 0.00 53 1017.7
20260902185400 94 254 0.0 3.5 0.00 0.00 0.00 53 1017.6
20260902185300 94 162 0.0 3.5 0.00 0.00 0.00 55 1017.6
20260902185200 94 178 0.9 3.5 0.00 0.00 0.00 54 1017.6
20260902185058 94 5 0.9 3.5 0.00 0.00 0.00 53 1017.6
20260902184800 94 121 0.0 7.8 0.00 0.00 0.00 52 1017.6
20260902184659 94 202 0.9 7.8 0.00 0.00 0.00 52 1017.6
20260902184558 94 207 0.9 7.8 0.00 0.00 0.00 53 1017.7
20260902184458 94 213 0.0 7.8 0.00 0.00 0.00 52 1017.6
20260902184400 94 111 0.0 7.8 0.00 0.00 0.00 53 1017.8
20260902184259 94 259 1.7 7.8 0.00 0.00 0.00 53 1017.7
20260902184159 94 47 1.7 7.8 0.00 0.00 0.00 53 1017.8
20260902184059 94 92 0.0 7.8 0.00 0.00 0.00 52 1017.9
20260902183859 94 32 0.0 3.5 0.00 0.00 0.00 54 1017.8
20260902183759 94 309 1.7 3.5 0.00 0.00 0.00 53 1017.8
20260902183700 94 161 0.9 3.5 0.00 0.00 0.00 55 1017.8
20260902183559 94 142 0.9 3.5 0.00 0.00 0.00 52 1017.8
20260902183501 94 215 2.6 6.1 0.00 0.00 0.00 52 1017.8
20260902183359 94 263 0.9 6.1 0.00 0.00 0.00 51 1017.8
20260902183258 94 188 0.9 6.1 0.00 0.00 0.00 52 1017.8
20260902183200 94 162 0.0 6.1 0.00 0.00 0.00 51 1017.8
20260902183058 95 160 0.9 6.1 0.00 0.00 0.00 52 1017.8
20260902182959 95 209 0.9 6.1 0.00 0.00 0.00 52 1017.9
20260902182858 95 207 0.9 6.1 0.00 0.00 0.00 52 1017.9
20260902182600 94 291 1.7 5.2 0.00 0.00 0.00 53 1017.9
20260902182500 94 349 0.0 5.2 0.00 0.00 0.00 54 1017.9
20260902182358 94 167 0.0 5.2 0.00 0.00 0.00 55 1017.9
20260902182300 94 320 0.0 5.2 0.00 0.00 0.00 57 1017.9
20260902181959 94 159 0.0 5.2 0.00 0.00 0.00 54 1017.8
20260902181859 93 178 0.0 5.2 0.00 0.00 0.00 54 1017.8
20260902181758 93 360 0.0 8.7 0.00 0.00 0.00 55 1017.8
20260902181658 93 158 0.0 8.7 0.00 0.00 0.00 55 1017.8
20260902181600 93 165 1.7 8.7 0.00 0.00 0.00 55 1017.8
20260902181459 93 160 0.0 8.7 0.00 0.00 0.00 55 1017.9
20260902181300 93 150 0.0 8.7 0.00 0.00 0.00 53 1017.9
20260902181159 94 190 0.0 8.7 0.00 0.00 0.00 54 1017.9
20260902181059 94 204 2.6 8.7 0.00 0.00 0.00 53 1018.0
20260902180959 94 146 3.5 7.8 0.00 0.00 0.00 54 1017.9
20260902180900 94 146 1.7 6.1 0.00 0.00 0.00 53 1017.9
20260902180800 94 202 1.7 6.1 0.00 0.00 0.00 53 1018.0
20260902180659 94 167 2.6 6.1 0.00 0.00 0.00 54 1018.0
20260902180358 94 360 0.9 6.1 0.00 0.00 0.00 53 1018.0
20260902180159 94 329 0.9 4.3 0.00 0.00 0.00 55 1018.0
20260902180059 94 334 0.0 4.3 0.00 0.00 0.00 54 1018.0
20260902175958 94 351 0.0 4.3 0.00 0.00 0.00 53 1018.1
20260902175859 94 355 0.0 4.3 0.00 0.00 0.00 53 1018.1
20260902175757 94 70 0.0 4.3 0.00 0.00 0.00 53 1018.0
20260902175657 94 323 1.7 4.3 0.00 0.00 0.00 52 1018.0
20260902175559 94 165 0.0 3.5 0.00 0.00 0.00 53 1018.1
20260902175457 94 311 0.0 3.5 0.00 0.00 0.00 54 1018.1
20260902175357 94 199 0.0 3.5 0.00 0.00 0.00 52 1018.1
20260902175258 94 199 2.6 3.5 0.00 0.00 0.00 52 1018.2
20260902175100 94 188 0.9 3.5 0.00 0.00 0.00 55 1018.1
20260902174959 94 153 0.9 4.3 0.00 0.00 0.00 55 1018.1
20260902174759 94 338 0.0 4.3 0.00 0.00 0.00 56 1018.1
20260902174658 94 248 2.6 6.1 0.00 0.00 0.00 55 1018.1
20260902174558 94 204 0.9 6.1 0.00 0.00 0.00 55 1018.1
20260902174458 94 225 0.9 6.1 0.00 0.00 0.00 56 1018.2
20260902174358 94 211 1.7 6.1 0.00 0.00 0.00 56 1018.2
20260902174258 94 244 0.0 6.1 0.00 0.00 0.00 55 1018.2
20260902174059 94 120 1.7 6.1 0.00 0.00 0.00 55 1018.2
20260902173958 94 215 0.0 6.1 0.00 0.00 0.00 55 1018.2
20260902173857 94 188 0.0 6.1 0.00 0.00 0.00 55 1018.3
20260902173658 93 214 0.0 7.0 0.00 0.00 0.00 56 1018.3
20260902173558 93 175 0.0 7.0 0.00 0.00 0.00 55 1018.3
20260902173458 93 84 0.9 7.8 0.00 0.00 0.00 55 1018.3
20260902173357 93 132 0.9 7.8 0.00 0.00 0.00 54 1018.4
20260902173258 93 255 1.7 7.8 0.00 0.00 0.00 55 1018.3
20260902173058 93 91 1.7 7.8 0.00 0.00 0.00 54 1018.3
20260902172957 93 175 6.1 7.8 0.00 0.00 0.00 55 1018.3
20260902172858 93 336 4.3 7.8 0.00 0.00 0.00 56 1018.4
20260902172657 93 194 2.6 8.7 0.00 0.00 0.00 55 1018.3
20260902172559 93 177 2.6 5.2 0.00 0.00 0.00 55 1018.3
20260902172458 93 227 0.9 5.2 0.00 0.00 0.00 55 1018.4
20260902172258 93 181 0.9 5.2 0.00 0.00 0.00 57 1018.3
20260902172157 93 55 0.0 5.2 0.00 0.00 0.00 56 1018.4
20260902171957 93 121 0.9 5.2 0.00 0.00 0.00 56 1018.4
20260902171858 93 186 0.0 5.2 0.00 0.00 0.00 55 1018.4
20260902171758 93 188 0.9 5.2 0.00 0.00 0.00 55 1018.4
20260902171658 93 82 0.9 5.2 0.00 0.00 0.00 54 1018.4
20260902171557 93 167 0.9 5.2 0.00 0.00 0.00 55 1018.4
20260902171459 93 250 2.6 5.2 0.00 0.00 0.00 55 1018.4
20260902171357 93 157 2.6 5.2 0.00 0.00 0.00 56 1018.4
20260902171258 93 174 0.9 5.2 0.00 0.00 0.00 56 1018.5
20260902171158 93 344 0.0 5.2 0.00 0.00 0.00 56 1018.4
20260902171058 93 127 0.9 6.1 0.00 0.00 0.00 58 1018.5
20260902170958 93 189 0.9 6.1 0.00 0.00 0.00 57 1018.4
20260902170858 93 333 0.0 6.1 0.00 0.00 0.00 56 1018.4
20260902170757 93 180 1.7 7.0 0.00 0.00 0.00 55 1018.5
20260902170657 93 271 2.6 7.0 0.00 0.00 0.00 55 1018.5
20260902170458 93 249 0.9 7.0 0.00 0.00 0.00 54 1018.5
20260902170258 93 172 4.3 7.0 0.00 0.00 0.00 54 1018.5
20260902170057 93 299 2.6 7.0 0.00 0.00 0.00 55 1018.5
20260902170000 93 177 4.3 7.0 0.00 0.00 0.00 55 1018.5
20260902165859 94 157 5.2 7.8 0.00 0.00 0.00 55 1018.5
20260902165558 94 30 3.5 6.1 0.00 0.00 0.00 56 1018.6
20260902165459 94 165 3.5 6.1 0.00 0.00 0.00 57 1018.6
20260902165358 94 306 0.9 3.5 0.00 0.00 0.00 55 1018.5
20260902165259 93 204 2.6 4.3 0.00 0.00 0.00 58 1018.6
20260902165157 93 100 0.0 4.3 0.00 0.00 0.00 57 1018.6
20260902165100 93 163 0.0 5.2 0.00 0.00 0.00 57 1018.6
20260902164957 93 335 0.9 5.2 0.00 0.00 0.00 57 1018.6
20260902164759 93 245 0.0 5.2 0.00 0.00 0.00 55 1018.6
20260902164657 93 342 0.0 5.2 0.00 0.00 0.00 58 1018.5
20260902164558 93 178 0.0 5.2 0.00 0.00 0.00 57 1018.6
20260902164457 93 155 0.0 5.2 0.00 0.00 0.00 56 1018.5
20260902164357 93 28 0.0 5.2 0.00 0.00 0.00 55 1018.6
20260902164300 93 229 1.7 5.2 0.00 0.00 0.00 54 1018.6
20260902164058 93 192 1.7 2.6 0.00 0.00 0.00 58 1018.6
20260902163958 93 173 1.7 2.6 0.00 0.00 0.00 57 1018.6
20260902163858 93 169 0.0 5.2 0.00 0.00 0.00 58 1018.6
20260902163759 93 161 0.9 5.2 0.00 0.00 0.00 58 1018.6
20260902163659 93 159 0.0 5.2 0.00 0.00 0.00 58 1018.6
20260902163559 93 163 0.0 5.2 0.00 0.00 0.00 58 1018.7
20260902163458 93 161 0.0 5.2 0.00 0.00 0.00 59 1018.6
20260902163358 92 93 0.0 6.1 0.00 0.00 0.00 60 1018.7
20260902163259 92 233 0.0 6.1 0.00 0.00 0.00 57 1018.6
20260902163158 92 154 1.7 6.1 0.00 0.00 0.00 57 1018.7
20260902163057 92 146 0.9 6.1 0.00 0.00 0.00 58 1018.7
20260902162959 92 173 4.3 6.1 0.00 0.00 0.00 59 1018.7
20260902162857 92 180 0.9 9.6 0.00 0.00 0.00 60 1018.7
20260902162759 92 341 0.0 9.6 0.00 0.00 0.00 58 1018.7
20260902162657 92 299 0.9 9.6 0.00 0.00 0.00 58 1018.8
20260902162558 92 275 0.9 9.6 0.00 0.00 0.00 58 1018.8
20260902162458 92 276 2.6 9.6 0.00 0.00 0.00 57 1018.8
20260902162257 92 171 3.5 9.6 0.00 0.00 0.00 57 1018.8
20260902162158 92 184 3.5 9.6 0.00 0.00 0.00 56 1018.7
20260902162058 92 192 2.6 9.6 0.00 0.00 0.00 57 1018.7
20260902161957 92 169 5.2 5.2 0.00 0.00 0.00 59 1018.7
20260902161858 92 284 2.6 5.2 0.00 0.00 0.00 59 1018.7
20260902161800 92 227 0.0 5.2 0.00 0.00 0.00 58 1018.8
20260902161658 92 236 0.0 7.0 0.00 0.00 0.00 58 1018.7
20260902161557 92 212 0.9 7.0 0.00 0.00 0.00 57 1018.7
20260902161459 92 140 2.6 7.0 0.00 0.00 0.00 57 1018.7
20260902161359 92 175 2.6 7.0 0.00 0.00 0.00 57 1018.8
20260902161259 92 248 0.0 7.0 0.00 0.00 0.00 58 1018.7
20260902161158 92 165 0.9 7.0 0.00 0.00 0.00 59 1018.7
20260902161057 92 128 0.9 7.0 0.00 0.00 0.00 58 1018.8
20260902160959 92 190 3.5 7.0 0.00 0.00 0.00 58 1018.8
20260902160858 92 295 0.9 7.0 0.00 0.00 0.00 57 1018.7
20260902160757 92 296 0.9 5.2 0.00 0.00 0.00 58 1018.8
20260902160659 92 243 2.6 5.2 0.00 0.00 0.00 58 1018.7
20260902160559 92 13 0.0 5.2 0.00 0.00 0.00 58 1018.8
20260902160457 92 335 2.6 5.2 0.00 0.00 0.00 59 1018.8
20260902160258 92 267 1.7 5.2 0.00 0.00 0.00 59 1018.7
20260902160159 92 203 0.0 5.2 0.00 0.00 0.00 58 1018.8
20260902155957 92 236 0.9 4.3 0.00 0.00 0.00 59 1018.7
20260902155757 92 5 0.9 4.3 0.00 0.00 0.00 58 1018.8
20260902155657 92 225 0.9 4.3 0.00 0.00 0.00 57 1018.8
20260902155559 92 216 0.9 4.3 0.00 0.00 0.00 59 1018.9
20260902155457 92 144 1.7 4.3 0.00 0.00 0.00 59 1018.9
20260902155358 92 176 0.0 4.3 0.00 0.00 0.00 58 1018.9
20260902155157 92 184 2.6 4.3 0.00 0.00 0.00 58 1018.9
20260902155058 92 302 0.0 4.3 0.00 0.00 0.00 58 1018.9
20260902154958 92 236 0.0 5.2 0.00 0.00 0.00 59 1018.8
20260902154857 92 267 0.9 5.2 0.00 0.00 0.00 59 1018.9
20260902154759 92 294 0.9 5.2 0.00 0.00 0.00 59 1018.9
20260902154558 92 181 1.7 5.2 0.00 0.00 0.00 59 1019.0
20260902154358 92 217 0.9 5.2 0.00 0.00 0.00 59 1018.9
20260902154158 92 238 1.7 6.1 0.00 0.00 0.00 59 1019.0
20260902154059 92 124 0.9 5.2 0.00 0.00 0.00 59 1019.0
20260902153858 92 173 0.9 5.2 0.00 0.00 0.00 59 1019.0
20260902153759 92 142 0.9 5.2 0.00 0.00 0.00 59 1019.0
20260902153659 92 198 1.7 5.2 0.00 0.00 0.00 60 1019.1
20260902153558 92 109 1.7 2.6 0.00 0.00 0.00 61 1019.0
20260902153457 92 194 0.9 2.6 0.00 0.00 0.00 61 1019.0
20260902153359 92 190 0.9 2.6 0.00 0.00 0.00 60 1019.0
20260902153158 91 157 0.0 3.5 0.00 0.00 0.00 62 1019.0
20260902152958 91 85 0.0 3.5 0.00 0.00 0.00 60 1019.1
20260902152758 91 300 0.0 3.5 0.00 0.00 0.00 62 1019.0
20260902152659 91 242 0.9 3.5 0.00 0.00 0.00 62 1019.0
20260902152559 91 167 2.6 3.5 0.00 0.00 0.00 62 1019.0
20260902152458 91 194 0.0 3.5 0.00 0.00 0.00 62 1019.0
20260902152359 91 163 0.0 2.6 0.00 0.00 0.00 62 1019.0
20260902152259 91 167 0.0 2.6 0.00 0.00 0.00 63 1019.0
20260902152159 90 255 0.0 2.6 0.00 0.00 0.00 63 1019.0
20260902152059 90 145 0.0 2.6 0.00 0.00 0.00 62 1019.1
20260902152000 90 330 0.0 2.6 0.00 0.00 0.00 62 1019.1
20260902151902 90 308 0.0 3.5 0.00 0.00 0.00 62 1019.0
20260902151804 90 308 0.0 3.5 0.00 0.00 0.00 63 1019.0
20260902151701 90 5 0.0 3.5 0.00 0.00 0.00 63 1019.1
20260902151500 90 340 0.0 3.5 0.00 0.00 0.00 64 1019.1
20260902151259 90 168 0.0 3.5 0.00 0.00 0.00 63 1019.1
20260902151159 90 22 0.0 3.5 0.00 0.00 0.00 63 1019.1
20260902151100 89 19 0.0 3.5 0.00 0.00 0.00 63 1019.1
20260902150959 89 170 3.5 3.5 0.00 0.00 0.00 63 1019.1
20260902150801 89 228 0.0 3.5 0.00 0.00 0.00 65 1019.1
20260902150659 89 322 0.0 3.5 0.00 0.00 0.00 65 1019.1
20260902150559 89 321 0.0 3.5 0.00 0.00 0.00 65 1019.2
20260902150459 89 347 0.9 3.5 0.00 0.00 0.00 65 1019.2
20260902150400 89 182 0.0 3.5 0.00 0.00 0.00 64 1019.2
20260902150259 89 191 1.7 3.5 0.00 0.00 0.00 64 1019.2
20260902150159 89 202 0.9 3.5 0.00 0.00 0.00 65 1019.0
20260902150100 89 284 0.9 3.5 0.00 0.00 0.00 66 1019.0
20260902145958 89 290 2.6 4.3 0.00 0.00 0.00 65 1019.1
20260902145857 88 159 3.5 4.3 0.00 0.00 0.00 65 1019.1
20260902145759 88 157 1.7 4.3 0.00 0.00 0.00 65 1019.1
20260902145658 88 242 0.0 4.3 0.00 0.00 0.00 65 1019.1
20260902145458 88 182 0.0 4.3 0.00 0.00 0.00 65 1019.0
20260902145258 88 154 1.7 4.3 0.00 0.00 0.00 65 1019.0
20260902145159 88 192 0.9 4.3 0.00 0.00 0.00 65 1019.0
20260902145059 88 94 0.9 3.5 0.00 0.00 0.00 66 1019.0
20260902144958 88 15 1.7 4.3 0.00 0.00 0.00 66 1018.9
20260902144857 88 251 0.9 4.3 0.00 0.00 0.00 67 1018.9
20260902144757 88 153 0.0 5.2 0.00 0.00 0.00 67 1018.9
20260902144658 88 307 0.9 5.2 0.00 0.00 0.00 66 1018.9
20260902144458 88 190 0.9 5.2 0.00 0.00 0.00 66 1019.0
20260902144358 88 163 0.9 5.2 0.00 0.00 0.00 66 1019.0
20260902144258 88 206 2.6 5.2 0.00 0.00 0.00 66 1018.9
20260902144158 88 175 0.9 5.2 0.00 0.00 0.00 65 1019.0
20260902144058 88 209 2.6 5.2 0.00 0.00 0.00 65 1018.9
20260902144000 88 144 0.0 5.2 0.00 0.00 0.00 65 1019.0
20260902143858 88 194 1.7 5.2 0.00 0.00 0.00 66 1019.0
20260902143658 88 227 0.9 5.2 0.00 0.00 0.00 67 1019.0
20260902143457 88 101 0.0 5.2 0.00 0.00 0.00 67 1019.0
20260902143357 88 245 0.0 5.2 0.00 0.00 0.00 66 1019.0
20260902143258 88 154 0.0 5.2 0.00 0.00 0.00 66 1018.9
20260902143200 88 182 0.9 0.9 0.00 0.00 0.00 67 1019.0
20260902143000 87 181 0.0 1.7 0.00 0.00 0.00 68 1018.9
20260902142858 87 42 0.0 1.7 0.00 0.00 0.00 67 1018.9
20260902142758 87 47 0.0 3.5 0.00 0.00 0.00 68 1018.9
20260902142700 87 15 0.0 3.5 0.00 0.00 0.00 68 1018.9
20260902142558 87 15 0.0 3.5 0.00 0.00 0.00 68 1018.9
20260902142458 87 113 0.0 3.5 0.00 0.00 0.00 67 1019.0
20260902142359 86 254 0.0 3.5 0.00 0.00 0.00 68 1018.9
20260902142259 86 334 0.0 3.5 0.00 0.00 0.00 68 1019.0
20260902142159 86 196 0.9 5.2 0.00 0.00 0.00 68 1019.0
20260902142058 86 171 1.7 5.2 0.00 0.00 0.00 68 1019.0
20260902141958 86 170 0.0 5.2 0.00 0.00 0.00 68 1019.1
20260902141858 86 180 1.7 7.8 0.00 0.00 0.00 68 1019.0
20260902141757 86 174 1.7 7.8 0.00 0.00 0.00 68 1019.0
20260902141658 86 206 0.0 7.8 0.00 0.00 0.00 68 1019.0
20260902141557 86 205 1.7 7.8 0.00 0.00 0.00 68 1019.0
20260902141458 86 165 0.0 7.8 0.00 0.00 0.00 68 1019.0
20260902141358 86 175 0.9 7.8 0.00 0.00 0.00 68 1019.0
20260902141258 86 191 5.2 7.8 0.00 0.00 0.00 68 1019.0
20260902141158 86 223 0.0 7.8 0.00 0.00 0.00 68 1019.0
20260902141059 86 206 1.7 8.7 0.00 0.00 0.00 68 1019.1
20260902140958 86 209 0.0 2.6 0.00 0.00 0.00 68 1019.0
20260902140858 86 195 0.0 2.6 0.00 0.00 0.00 69 1019.0
20260902140758 86 317 2.6 2.6 0.00 0.00 0.00 69 1019.0
20260902140658 86 159 0.0 2.6 0.00 0.00 0.00 69 1019.0
20260902140558 85 163 0.0 2.6 0.00 0.00 0.00 69 1019.0
20260902140458 85 262 0.0 2.6 0.00 0.00 0.00 69 1019.0
20260902140158 85 186 2.6 3.5 0.00 0.00 0.00 68 1019.0
20260902140059 85 164 1.7 5.2 0.00 0.00 0.00 68 1019.1
20260902135958 85 236 2.6 5.2 0.00 0.00 0.00 68 1019.0
20260902135758 85 206 0.0 5.2 0.00 0.00 0.00 69 1019.0
20260902135659 85 290 0.0 5.2 0.00 0.00 0.00 68 1019.0
20260902135558 85 172 0.0 5.2 0.00 0.00 0.00 68 1019.0
20260902135458 85 181 0.0 5.2 0.00 0.00 0.00 68 1019.1
20260902135359 85 227 0.9 5.2 0.00 0.00 0.00 68 1019.1
20260902135257 85 161 0.0 5.2 0.00 0.00 0.00 68 1019.0
20260902135158 84 160 0.9 3.5 0.00 0.00 0.00 68 1019.1
20260902135058 84 265 1.7 3.5 0.00 0.00 0.00 67 1019.0
20260902134959 84 194 0.9 3.5 0.00 0.00 0.00 67 1019.1
20260902134758 84 164 0.0 4.3 0.00 0.00 0.00 68 1019.1
20260902134658 84 164 0.9 4.3 0.00 0.00 0.00 69 1019.1
20260902134558 84 168 0.0 2.6 0.00 0.00 0.00 69 1019.1
20260902134457 84 168 0.0 2.6 0.00 0.00 0.00 68 1019.1
20260902134358 83 148 0.0 2.6 0.00 0.00 0.00 68 1019.0
20260902134259 83 41 1.7 3.5 0.00 0.00 0.00 69 1019.1
20260902134057 83 194 0.0 3.5 0.00 0.00 0.00 69 1019.1
20260902133958 83 244 0.9 3.5 0.00 0.00 0.00 70 1019.2
20260902133859 83 296 0.0 3.5 0.00 0.00 0.00 70 1019.1
20260902133758 83 319 1.7 3.5 0.00 0.00 0.00 70 1019.1
20260902133658 83 198 0.9 3.5 0.00 0.00 0.00 69 1019.1
20260902133558 83 302 0.9 3.5 0.00 0.00 0.00 70 1019.1
20260902133458 82 302 2.6 3.5 0.00 0.00 0.00 70 1019.1
20260902133357 82 180 1.7 3.5 0.00 0.00 0.00 70 1019.1
20260902133258 82 240 0.9 3.5 0.00 0.00 0.00 70 1019.1
20260902133158 82 181 0.9 3.5 0.00 0.00 0.00 71 1019.2
20260902133059 82 281 1.7 3.5 0.00 0.00 0.00 71 1019.1
20260902132958 82 254 0.9 3.5 0.00 0.00 0.00 71 1019.1
20260902132858 82 350 1.7 4.3 0.00 0.00 0.00 71 1019.1
20260902132758 82 255 0.9 4.3 0.00 0.00 0.00 71 1019.1
20260902132659 82 200 1.7 4.3 0.00 0.00 0.00 71 1019.2
20260902132558 82 194 2.6 4.3 0.00 0.00 0.00 71 1019.1
20260902132458 81 191 0.9 4.3 0.00 0.00 0.00 72 1019.2
20260902132358 81 173 2.6 4.3 0.00 0.00 0.00 72 1019.2
20260902132259 81 185 0.0 4.3 0.00 0.00 0.00 72 1019.2
20260902132157 81 209 0.0 4.3 0.00 0.00 0.00 72 1019.1
20260902132058 81 94 0.0 4.3 0.00 0.00 0.00 72 1019.1
20260902131958 81 150 0.0 4.3 0.00 0.00 0.00 71 1019.2
20260902131758 81 151 0.9 4.3 0.00 0.00 0.00 72 1019.2
20260902131658 81 239 1.7 3.5 0.00 0.00 0.00 72 1019.2
20260902131458 81 293 2.6 2.6 0.00 0.00 0.00 72 1019.2
20260902131259 81 221 1.7 2.6 0.00 0.00 0.00 73 1019.2
20260902131158 80 211 0.0 2.6 0.00 0.00 0.00 73 1019.2
20260902131058 80 178 0.9 2.6 0.00 0.00 0.00 73 1019.1
20260902130958 80 175 1.7 2.6 0.00 0.00 0.00 73 1019.1
20260902130758 80 269 0.0 2.6 0.00 0.00 0.00 74 1019.0
20260902130557 80 240 0.0 2.6 0.00 0.00 0.00 74 1019.0
20260902130458 80 276 0.9 2.6 0.00 0.00 0.00 74 1019.0
20260902130258 80 196 0.0 2.6 0.00 0.00 0.00 74 1018.9
20260902130159 80 193 0.0 2.6 0.00 0.00 0.00 74 1018.8
20260902130057 80 184 0.9 2.6 0.00 0.00 0.00 75 1018.9
20260902130000 80 187 0.9 2.6 0.00 0.00 0.00 75 1018.9
20260902125859 80 234 0.0 2.6 0.00 0.00 0.00 75 1018.8
20260902125757 79 187 0.0 2.6 0.00 0.00 0.00 75 1018.8
20260902125658 79 264 0.0 2.6 0.00 0.00 0.00 75 1018.8
20260902125558 79 284 1.7 4.3 0.00 0.00 0.00 75 1018.9
20260902125457 79 228 0.0 4.3 0.00 0.00 0.00 75 1018.8
20260902125257 79 360 0.0 4.3 0.00 0.00 0.00 75 1018.7
20260902125200 79 360 0.9 4.3 0.00 0.00 0.00 75 1018.8
20260902125058 79 108 0.0 4.3 0.00 0.00 0.00 75 1018.8
20260902124957 79 26 0.9 4.3 0.00 0.00 0.00 75 1018.8
20260902124758 79 180 2.6 4.3 0.00 0.00 0.00 76 1018.8
20260902124700 79 193 0.0 1.7 0.00 0.00 0.00 76 1018.9
20260902124557 79 184 0.0 1.7 0.00 0.00 0.00 76 1018.8
20260902124458 79 184 0.0 1.7 0.00 0.00 0.00 76 1018.9
20260902124359 78 167 0.0 1.7 0.00 0.00 0.00 76 1018.9
20260902124258 78 165 0.0 1.7 0.00 0.00 0.00 76 1018.9
20260902124158 78 177 0.0 1.7 0.00 0.00 0.00 76 1018.9
20260902124057 78 176 0.0 1.7 0.00 0.00 0.00 77 1018.9
20260902124000 78 185 0.0 0.0 0.00 0.00 0.00 77 1018.9
20260902123857 78 170 0.0 0.0 0.00 0.00 0.00 77 1018.9
20260902123758 78 188 0.0 0.0 0.00 0.00 0.00 77 1018.8
20260902123658 78 188 0.0 0.0 0.00 0.00 0.00 77 1018.8
20260902123557 78 188 0.0 0.0 0.00 0.00 0.00 77 1018.8
20260902123457 78 187 0.0 0.0 0.00 0.00 0.00 78 1018.9
20260902123358 78 177 0.0 0.0 0.00 0.00 0.00 78 1018.8
20260902123158 77 178 0.0 0.0 0.00 0.00 0.00 78 1018.8
20260902123059 77 178 0.0 0.0 0.00 0.00 0.00 78 1018.8
20260902122957 77 190 0.0 0.0 0.00 0.00 0.00 78 1018.8
20260902122657 77 250 0.0 0.0 0.00 0.00 0.00 79 1018.8
20260902122557 77 213 0.0 0.0 0.00 0.00 0.00 79 1018.9
20260902122257 77 250 0.0 0.0 0.00 0.00 0.00 79 1018.8
20260902122157 77 248 0.0 0.0 0.00 0.00 0.00 79 1018.9
20260902122059 77 248 0.0 0.0 0.00 0.00 0.00 79 1018.8
20260902121959 77 237 0.0 0.0 0.00 0.00 0.00 79 1018.9
20260902121859 76 237 0.0 0.0 0.00 0.00 0.00 79 1018.9
20260902121757 76 239 0.0 0.0 0.00 0.00 0.00 80 1018.9
20260902121658 76 227 0.0 0.0 0.00 0.00 0.00 80 1018.8
20260902121558 76 227 0.0 0.0 0.00 0.00 0.00 80 1018.8
20260902121457 76 232 0.0 0.0 0.00 0.00 0.00 80 1018.8
20260902121358 76 225 0.0 0.0 0.00 0.00 0.00 80 1018.8
20260902121257 76 234 0.0 0.0 0.00 0.00 0.00 80 1018.7
20260902121157 76 277 0.0 0.0 0.00 0.00 0.00 80 1018.7
20260902121058 76 277 0.0 0.0 0.00 0.00 0.00 80 1018.7
20260902120957 76 265 0.0 0.0 0.00 0.00 0.00 80 1018.7
20260902120858 76 265 0.0 0.0 0.00 0.00 0.00 80 1018.7
20260902120757 76 265 0.0 0.0 0.00 0.00 0.00 80 1018.7
20260902120658 76 284 0.0 0.0 0.00 0.00 0.00 80 1018.7
20260902120558 76 286 0.0 0.0 0.00 0.00 0.00 80 1018.8
20260902120458 76 288 0.0 0.0 0.00 0.00 0.00 80 1018.7
20260902120359 76 249 0.0 0.0 0.00 0.00 0.00 81 1018.7
20260902120158 75 249 0.0 0.0 0.00 0.00 0.00 81 1018.7
20260902120058 75 249 0.0 0.0 0.00 0.00 0.00 80 1018.7
20260902115757 75 249 0.0 0.0 0.00 0.00 0.00 81 1018.7
20260902115658 75 249 0.0 0.0 0.00 0.00 0.00 81 1018.7
20260902115557 75 249 0.0 0.0 0.00 0.00 0.00 81 1018.6
20260902115458 75 249 0.0 0.0 0.00 0.00 0.00 81 1018.6
20260902115358 75 249 0.0 0.0 0.00 0.00 0.00 81 1018.6
20260902115258 75 249 0.0 0.0 0.00 0.00 0.00 81 1018.6
20260902115200 75 248 0.0 0.0 0.00 0.00 0.00 81 1018.6
20260902115057 75 248 0.0 0.0 0.00 0.00 0.00 81 1018.5
20260902114957 75 250 0.0 0.0 0.00 0.00 0.00 81 1018.6
20260902114859 75 250 0.0 0.0 0.00 0.00 0.00 81 1018.6
20260902114757 75 240 0.0 0.0 0.00 0.00 0.00 81 1018.6
20260902114658 75 240 0.0 0.0 0.00 0.00 0.00 81 1018.6
20260902114557 75 240 0.0 0.0 0.00 0.00 0.00 81 1018.6
20260902114457 75 240 0.0 0.0 0.00 0.00 0.00 81 1018.5
20260902114358 75 258 0.0 0.0 0.00 0.00 0.00 81 1018.6
20260902114257 75 255 0.0 0.0 0.00 0.00 0.00 81 1018.5
20260902114157 75 255 0.0 0.0 0.00 0.00 0.00 81 1018.5
20260902113957 75 255 0.0 0.0 0.00 0.00 0.00 81 1018.5
20260902113857 75 255 0.0 0.0 0.00 0.00 0.00 81 1018.6
20260902113658 75 255 0.0 0.0 0.00 0.00 0.00 81 1018.6
20260902113458 75 255 0.0 0.0 0.00 0.00 0.00 81 1018.5
20260902113358 75 275 0.0 0.0 0.00 0.00 0.00 81 1018.5
20260902113257 75 275 0.0 0.0 0.00 0.00 0.00 81 1018.5
20260902112958 75 277 0.0 0.0 0.00 0.00 0.00 81 1018.4
20260902112857 75 277 0.0 0.0 0.00 0.00 0.00 81 1018.4
20260902112757 75 277 0.0 0.0 0.00 0.00 0.00 81 1018.4
20260902112657 75 277 0.0 0.0 0.00 0.00 0.00 81 1018.4
20260902112558 75 277 0.0 0.0 0.00 0.00 0.00 81 1018.3
20260902112457 75 277 0.0 0.0 0.00 0.00 0.00 81 1018.4
20260902112358 75 277 0.0 0.0 0.00 0.00 0.00 81 1018.3
20260902112257 75 277 0.0 0.0 0.00 0.00 0.00 81 1018.3
20260902112159 75 277 0.0 0.0 0.00 0.00 0.00 81 1018.3
20260902112058 75 277 0.0 0.0 0.00 0.00 0.00 81 1018.2
20260902111957 75 277 0.0 0.0 0.00 0.00 0.00 81 1018.3
20260902111858 75 277 0.0 0.0 0.00 0.00 0.00 81 1018.3
20260902111758 75 277 0.0 0.0 0.00 0.00 0.00 81 1018.3
20260902111658 75 277 0.0 0.0 0.00 0.00 0.00 81 1018.2
20260902111558 75 277 0.0 0.0 0.00 0.00 0.00 81 1018.2
20260902111458 75 277 0.0 0.0 0.00 0.00 0.00 81 1018.2
20260902111357 75 277 0.0 0.0 0.00 0.00 0.00 81 1018.3
20260902111258 75 277 0.0 0.0 0.00 0.00 0.00 81 1018.3
20260902111157 75 277 0.0 0.0 0.00 0.00 0.00 81 1018.3
20260902111057 75 277 0.0 0.0 0.00 0.00 0.00 81 1018.3
20260902110957 75 277 0.0 0.0 0.00 0.00 0.00 81 1018.3
20260902110858 75 277 0.0 0.0 0.00 0.00 0.00 81 1018.3
20260902110758 75 279 0.0 0.0 0.00 0.00 0.00 81 1018.3
20260902110657 75 277 0.0 0.0 0.00 0.00 0.00 81 1018.3
20260902110600 75 280 0.0 0.0 0.00 0.00 0.00 81 1018.3
20260902110458 75 280 0.0 0.0 0.00 0.00 0.00 81 1018.4
20260902110357 75 280 0.0 0.0 0.00 0.00 0.00 81 1018.3
20260902110159 75 280 0.0 0.0 0.00 0.00 0.00 81 1018.3
20260902110058 75 286 0.0 0.0 0.00 0.00 0.00 81 1018.2
20260902105958 75 286 0.0 0.0 0.00 0.00 0.00 81 1018.2
20260902105857 75 286 0.0 0.0 0.00 0.00 0.00 81 1018.3
20260902105757 75 286 0.0 0.0 0.00 0.00 0.00 81 1018.2
20260902105658 75 286 0.0 0.0 0.00 0.00 0.00 81 1018.3
20260902105557 75 286 0.0 0.0 0.00 0.00 0.00 81 1018.3
20260902105457 75 315 0.0 0.0 0.00 0.00 0.00 81 1018.3
20260902105358 75 315 0.0 0.0 0.00 0.00 0.00 81 1018.3
20260902105257 75 315 0.0 0.0 0.00 0.00 0.00 81 1018.3
20260902105158 75 315 0.0 0.0 0.00 0.00 0.00 81 1018.4
20260902105057 75 315 0.0 0.0 0.00 0.00 0.00 81 1018.4
20260902104857 75 315 0.0 0.0 0.00 0.00 0.00 81 1018.3
20260902104557 75 315 0.0 0.0 0.00 0.00 0.00 81 1018.3
20260902104459 75 315 0.0 0.0 0.00 0.00 0.00 81 1018.3
20260902104359 75 315 0.0 0.0 0.00 0.00 0.00 81 1018.3
20260902104257 75 315 0.0 0.0 0.00 0.00 0.00 81 1018.3
20260902104157 75 315 0.0 0.0 0.00 0.00 0.00 81 1018.3
20260902104059 75 315 0.0 0.0 0.00 0.00 0.00 81 1018.3
20260902103957 75 315 0.0 0.0 0.00 0.00 0.00 81 1018.2
20260902103757 75 315 0.0 0.0 0.00 0.00 0.00 81 1018.3
20260902103658 75 315 0.0 0.0 0.00 0.00 0.00 81 1018.3
20260902103558 75 315 0.0 0.0 0.00 0.00 0.00 81 1018.3
20260902103302 75 315 0.0 0.0 0.00 0.00 0.00 81 1018.2
20260902103157 75 315 0.0 0.0 0.00 0.00 0.00 81 1018.2
20260902103058 75 315 0.0 0.0 0.00 0.00 0.00 81 1018.2
20260902102958 75 315 0.0 0.0 0.00 0.00 0.00 81 1018.1
20260902102856 75 315 0.0 0.0 0.00 0.00 0.00 81 1018.1
20260902102757 75 315 0.0 0.0 0.00 0.00 0.00 81 1018.1
20260902102659 75 315 0.0 0.0 0.00 0.00 0.00 81 1018.1
20260902102558 75 315 0.0 0.0 0.00 0.00 0.00 81 1018.1
20260902102459 75 315 0.0 0.0 0.00 0.00 0.00 81 1018.1
20260902102359 75 315 0.0 0.0 0.00 0.00 0.00 81 1018.1
20260902102257 75 315 0.0 0.0 0.00 0.00 0.00 81 1018.2
20260902102159 75 315 0.0 0.0 0.00 0.00 0.00 81 1018.1
20260902101957 75 315 0.0 0.0 0.00 0.00 0.00 81 1018.1
20260902101859 75 315 0.0 0.0 0.00 0.00 0.00 81 1018.1
20260902101757 75 161 0.0 0.0 0.00 0.00 0.00 81 1018.1
20260902101657 75 161 0.0 0.0 0.00 0.00 0.00 81 1018.1
20260902101459 75 159 0.0 0.0 0.00 0.00 0.00 80 1018.1
20260902101357 75 159 0.0 0.0 0.00 0.00 0.00 80 1018.1
20260902101159 75 159 0.0 0.0 0.00 0.00 0.00 80 1018.0
20260902101057 75 159 0.0 0.0 0.00 0.00 0.00 80 1018.1
20260902100957 75 159 0.0 0.0 0.00 0.00 0.00 80 1018.1
20260902100857 75 129 0.0 0.0 0.00 0.00 0.00 80 1018.1
20260902100758 75 129 0.0 0.0 0.00 0.00 0.00 80 1018.0
20260902100658 75 129 0.0 0.0 0.00 0.00 0.00 80 1018.0
20260902100558 75 129 0.0 0.0 0.00 0.00 0.00 80 1018.0
20260902100259 75 129 0.0 0.0 0.00 0.00 0.00 80 1018.0
20260902100158 75 129 0.0 0.0 0.00 0.00 0.00 80 1017.9
20260902100058 75 129 0.0 0.0 0.00 0.00 0.00 80 1017.9
20260902100000 75 129 0.0 0.0 0.00 0.00 0.00 80 1017.9
20260902095857 75 129 0.0 0.0 0.00 0.00 0.00 79 1017.9
20260902095757 75 129 0.0 0.0 0.00 0.00 0.00 79 1017.9
20260902095558 75 129 0.0 0.0 0.00 0.00 0.00 79 1017.9
20260902095357 75 129 0.0 0.0 0.00 0.00 0.00 79 1018.0
20260902095257 75 129 0.0 0.0 0.00 0.00 0.00 79 1018.0
20260902095058 76 129 0.0 0.0 0.00 0.00 0.00 79 1018.0
20260902094957 76 129 0.0 0.0 0.00 0.00 0.00 79 1018.0
20260902094859 76 129 0.0 0.0 0.00 0.00 0.00 79 1018.0
20260902094658 76 129 0.0 0.0 0.00 0.00 0.00 79 1018.1
20260902094558 76 129 0.0 0.0 0.00 0.00 0.00 79 1018.1
20260902094458 76 129 0.0 0.0 0.00 0.00 0.00 79 1018.1
20260902094357 76 129 0.0 0.0 0.00 0.00 0.00 79 1018.1
20260902094258 76 129 0.0 0.0 0.00 0.00 0.00 79 1018.1
20260902094158 76 129 0.0 0.0 0.00 0.00 0.00 79 1018.1
20260902094058 76 129 0.0 0.0 0.00 0.00 0.00 79 1018.1
20260902093958 76 129 0.0 0.0 0.00 0.00 0.00 78 1018.2
20260902093857 76 129 0.0 0.0 0.00 0.00 0.00 78 1018.2
20260902093758 76 129 0.0 0.0 0.00 0.00 0.00 78 1018.2
20260902093657 76 129 0.0 0.0 0.00 0.00 0.00 78 1018.1
20260902093558 76 129 0.0 0.0 0.00 0.00 0.00 78 1018.1
20260902093458 76 129 0.0 0.0 0.00 0.00 0.00 78 1018.1
20260902093358 76 129 0.0 0.0 0.00 0.00 0.00 78 1018.2
20260902093159 76 129 0.0 0.0 0.00 0.00 0.00 78 1018.1
20260902093058 76 129 0.0 0.0 0.00 0.00 0.00 78 1018.1
20260902092957 76 129 0.0 0.0 0.00 0.00 0.00 78 1018.1
20260902092858 76 129 0.0 0.0 0.00 0.00 0.00 78 1018.2
20260902092759 76 129 0.0 0.0 0.00 0.00 0.00 78 1018.1
20260902092657 76 129 0.0 0.0 0.00 0.00 0.00 78 1018.1
20260902092458 76 129 0.0 0.0 0.00 0.00 0.00 78 1018.1
20260902092358 76 129 0.0 0.0 0.00 0.00 0.00 78 1018.1
20260902092258 76 129 0.0 0.0 0.00 0.00 0.00 78 1018.1
20260902092056 76 129 0.0 0.0 0.00 0.00 0.00 78 1017.9
20260902091958 76 129 0.0 0.0 0.00 0.00 0.00 78 1018.0
20260902091857 76 129 0.0 0.0 0.00 0.00 0.00 78 1017.9
20260902091758 76 129 0.0 0.0 0.00 0.00 0.00 78 1018.0
20260902091658 76 129 0.0 0.0 0.00 0.00 0.00 78 1018.0
20260902091558 76 129 0.0 0.0 0.00 0.00 0.00 78 1018.0
20260902091257 76 129 0.0 0.0 0.00 0.00 0.00 78 1018.0
20260902091158 76 129 0.0 0.0 0.00 0.00 0.00 78 1018.1
20260902091056 76 129 0.0 0.0 0.00 0.00 0.00 78 1018.0
20260902090957 76 129 0.0 0.0 0.00 0.00 0.00 78 1018.0
20260902090900 76 129 0.0 0.0 0.00 0.00 0.00 78 1018.0
20260902090758 76 129 0.0 0.0 0.00 0.00 0.00 79 1017.9
20260902090557 76 129 0.0 0.0 0.00 0.00 0.00 79 1017.9
20260902090457 76 129 0.0 0.0 0.00 0.00 0.00 79 1017.9
20260902090358 77 129 0.0 0.0 0.00 0.00 0.00 79 1017.9
20260902090157 77 129 0.0 0.0 0.00 0.00 0.00 79 1017.9
20260902085957 77 129 0.0 0.0 0.00 0.00 0.00 78 1017.9
20260902085858 77 129 0.0 0.0 0.00 0.00 0.00 78 1017.9
20260902085659 77 173 0.0 0.0 0.00 0.00 0.00 79 1017.9
20260902085558 77 173 0.0 0.0 0.00 0.00 0.00 79 1017.9
20260902085458 77 173 0.0 0.0 0.00 0.00 0.00 79 1017.9
20260902085257 77 173 0.0 0.0 0.00 0.00 0.00 79 1017.9
20260902085158 77 173 0.0 0.0 0.00 0.00 0.00 79 1017.9
20260902085057 77 162 0.0 0.0 0.00 0.00 0.00 79 1017.8
20260902084959 77 162 0.0 0.0 0.00 0.00 0.00 79 1017.8
20260902084859 77 162 0.0 0.0 0.00 0.00 0.00 79 1017.8
20260902084757 77 162 0.0 0.0 0.00 0.00 0.00 79 1017.8
20260902084658 77 162 0.0 0.0 0.00 0.00 0.00 79 1017.8
20260902084557 77 162 0.0 0.0 0.00 0.00 0.00 79 1017.8
20260902084457 77 162 0.0 0.0 0.00 0.00 0.00 79 1017.7
20260902084258 77 279 0.0 0.0 0.00 0.00 0.00 79 1017.8
20260902084156 77 280 0.0 0.0 0.00 0.00 0.00 79 1017.7
20260902084057 77 197 0.0 0.0 0.00 0.00 0.00 79 1017.7
20260902083959 77 181 0.0 0.0 0.00 0.00 0.00 79 1017.7
20260902083758 77 222 0.0 0.0 0.00 0.00 0.00 79 1017.7
20260902083658 77 222 0.0 0.0 0.00 0.00 0.00 79 1017.7
20260902083557 77 225 0.0 0.0 0.00 0.00 0.00 79 1017.6
20260902083457 77 225 0.0 0.0 0.00 0.00 0.00 79 1017.6
20260902083359 77 208 0.0 0.0 0.00 0.00 0.00 79 1017.6
20260902083258 77 208 0.0 0.0 0.00 0.00 0.00 79 1017.6
20260902083159 77 208 0.0 0.0 0.00 0.00 0.00 79 1017.6
20260902083057 77 208 0.0 0.0 0.00 0.00 0.00 79 1017.6
20260902082959 77 208 0.0 0.0 0.00 0.00 0.00 79 1017.6
20260902082859 77 208 0.0 0.0 0.00 0.00 0.00 79 1017.6
20260902082759 77 208 0.0 0.0 0.00 0.00 0.00 79 1017.6
20260902082657 77 244 0.0 0.0 0.00 0.00 0.00 79 1017.5
20260902082558 77 244 0.0 0.0 0.00 0.00 0.00 79 1017.6
20260902082458 77 244 0.0 0.0 0.00 0.00 0.00 79 1017.6
20260902082358 77 244 0.0 0.0 0.00 0.00 0.00 79 1017.6
20260902082258 77 244 0.0 0.0 0.00 0.00 0.00 78 1017.6
20260902082059 77 244 0.0 0.0 0.00 0.00 0.00 78 1017.6
20260902081858 77 244 0.0 0.0 0.00 0.00 0.00 78 1017.5
20260902081758 77 244 0.0 0.0 0.00 0.00 0.00 78 1017.5
20260902081659 77 244 0.0 0.0 0.00 0.00 0.00 78 1017.5
20260902081557 77 244 0.0 0.0 0.00 0.00 0.00 78 1017.5
20260902081457 77 244 0.0 0.0 0.00 0.00 0.00 78 1017.4
20260902081358 77 244 0.0 0.0 0.00 0.00 0.00 78 1017.4
20260902081258 77 244 0.0 0.0 0.00 0.00 0.00 78 1017.5
20260902081157 77 244 0.0 0.0 0.00 0.00 0.00 78 1017.5
20260902081058 77 244 0.0 0.0 0.00 0.00 0.00 78 1017.4
20260902080958 77 244 0.0 0.0 0.00 0.00 0.00 78 1017.4
20260902080859 77 244 0.0 0.0 0.00 0.00 0.00 78 1017.4
20260902080758 77 244 0.0 0.0 0.00 0.00 0.00 78 1017.4
20260902080658 77 244 0.0 0.0 0.00 0.00 0.00 78 1017.4
20260902080557 77 244 0.0 0.0 0.00 0.00 0.00 78 1017.4
20260902080457 77 244 0.0 0.0 0.00 0.00 0.00 78 1017.4
20260902080357 77 291 0.0 0.0 0.00 0.00 0.00 78 1017.4
20260902080157 77 291 0.0 0.0 0.00 0.00 0.00 78 1017.3
20260902080058 78 290 0.0 0.0 0.00 0.00 0.00 78 1017.3
20260902075957 77 175 0.0 0.0 0.00 0.00 0.00 78 1017.3
20260902075901 77 175 0.0 0.0 0.00 0.00 0.00 78 1017.3
20260902075757 77 187 0.0 0.0 0.00 0.00 0.00 78 1017.4
20260902075655 77 187 0.0 0.0 0.00 0.00 0.00 78 1017.4
20260902075557 77 187 0.0 0.0 0.00 0.00 0.00 78 1017.4
20260902075457 78 187 0.0 0.0 0.00 0.00 0.00 78 1017.4
20260902075358 78 187 0.0 0.0 0.00 0.00 0.00 78 1017.4
20260902075257 78 187 0.0 0.0 0.00 0.00 0.00 78 1017.4
20260902075156 78 187 0.0 0.0 0.00 0.00 0.00 78 1017.3
20260902074956 78 185 0.0 0.0 0.00 0.00 0.00 78 1017.2
20260902074857 78 185 0.0 0.0 0.00 0.00 0.00 78 1017.3
20260902074756 78 185 0.0 0.0 0.00 0.00 0.00 78 1017.2
20260902074656 78 185 0.0 0.0 0.00 0.00 0.00 78 1017.3
20260902074557 78 185 0.0 0.0 0.00 0.00 0.00 78 1017.2
20260902074457 78 185 0.0 0.0 0.00 0.00 0.00 78 1017.2
20260902074356 78 185 0.0 0.0 0.00 0.00 0.00 78 1017.3
20260902074256 78 185 0.0 0.0 0.00 0.00 0.00 78 1017.3
20260902074158 78 235 0.0 0.0 0.00 0.00 0.00 78 1017.3
20260902074059 78 235 0.0 0.0 0.00 0.00 0.00 78 1017.3
20260902073758 78 248 0.0 0.0 0.00 0.00 0.00 78 1017.3
20260902073657 78 248 0.0 0.0 0.00 0.00 0.00 78 1017.3
20260902073456 78 248 0.0 0.0 0.00 0.00 0.00 78 1017.3
20260902073356 78 248 0.0 0.0 0.00 0.00 0.00 77 1017.2
20260902073257 78 248 0.0 0.0 0.00 0.00 0.00 77 1017.3
20260902073159 78 248 0.0 0.0 0.00 0.00 0.00 77 1017.3
20260902073056 78 248 0.0 0.0 0.00 0.00 0.00 77 1017.1
20260902072959 78 248 0.0 0.0 0.00 0.00 0.00 77 1017.3
20260902072856 78 248 0.0 0.0 0.00 0.00 0.00 77 1017.2
20260902072758 78 247 0.0 0.0 0.00 0.00 0.00 77 1017.2
20260902072657 78 247 0.0 0.0 0.00 0.00 0.00 77 1017.2
20260902072556 78 247 0.0 0.0 0.00 0.00 0.00 78 1017.2
20260902072457 78 247 0.0 0.0 0.00 0.00 0.00 77 1017.1
20260902072256 78 247 0.0 0.0 0.00 0.00 0.00 77 1017.2
20260902072157 78 242 0.0 0.0 0.00 0.00 0.00 77 1017.2
20260902072058 78 232 0.0 0.0 0.00 0.00 0.00 77 1017.2
20260902071957 78 232 0.0 0.0 0.00 0.00 0.00 78 1017.1
20260902071856 78 231 0.0 0.0 0.00 0.00 0.00 77 1017.2
20260902071658 78 231 0.0 0.0 0.00 0.00 0.00 77 1017.1
20260902071557 78 231 0.0 0.0 0.00 0.00 0.00 77 1017.2
20260902071357 78 225 0.0 0.0 0.00 0.00 0.00 78 1017.1
20260902071257 78 225 0.0 0.0 0.00 0.00 0.00 77 1017.2
20260902071056 78 215 0.0 0.0 0.00 0.00 0.00 77 1017.3
20260902070956 78 215 0.0 0.0 0.00 0.00 0.00 77 1017.3
20260902070857 78 215 0.0 0.0 0.00 0.00 0.00 77 1017.2
20260902070757 78 215 0.0 0.0 0.00 0.00 0.00 77 1017.2
20260902070556 78 215 0.0 0.9 0.00 0.00 0.00 77 1017.3
20260902070456 78 215 0.0 0.9 0.00 0.00 0.00 77 1017.3
20260902070256 78 215 0.0 0.9 0.00 0.00 0.00 78 1017.2
20260902070157 78 215 0.0 0.9 0.00 0.00 0.00 78 1017.3
20260902070056 78 207 0.0 0.9 0.00 0.00 0.00 78 1017.3
20260902065959 78 181 0.0 0.9 0.00 0.00 0.00 78 1017.3
20260902065859 78 181 0.0 0.9 0.00 0.00 0.00 78 1017.3
20260902065758 78 231 0.0 0.0 0.00 0.00 0.00 78 1017.3
20260902065657 78 232 0.0 0.0 0.00 0.00 0.00 78 1017.3
20260902065559 78 237 0.0 0.0 0.00 0.00 0.00 78 1017.3
20260902065500 78 237 0.0 0.0 0.00 0.00 0.00 78 1017.3
20260902065359 78 237 0.0 0.0 0.00 0.00 0.00 78 1017.2
20260902065157 78 237 0.0 0.0 0.00 0.00 0.00 78 1017.3
20260902065057 78 237 0.0 0.0 0.00 0.00 0.00 78 1017.3
20260902064957 78 237 0.0 0.0 0.00 0.00 0.00 78 1017.3
20260902064858 78 237 0.0 0.0 0.00 0.00 0.00 78 1017.2
20260902064757 78 237 0.0 0.0 0.00 0.00 0.00 78 1017.2
20260902064659 78 237 0.0 0.0 0.00 0.00 0.00 78 1017.2
20260902064558 78 237 0.0 0.0 0.00 0.00 0.00 78 1017.3
20260902064357 78 237 0.0 0.0 0.00 0.00 0.00 78 1017.3
20260902064258 78 231 0.0 0.0 0.00 0.00 0.00 78 1017.3
20260902064157 78 231 0.0 0.0 0.00 0.00 0.00 78 1017.3
20260902064057 78 231 0.0 0.0 0.00 0.00 0.00 78 1017.2
20260902063857 78 231 0.0 0.0 0.00 0.00 0.00 78 1017.3
20260902063759 78 231 0.0 0.0 0.00 0.00 0.00 78 1017.3
20260902063658 78 231 0.0 0.0 0.00 0.00 0.00 78 1017.3
20260902063559 78 211 0.0 0.0 0.00 0.00 0.00 78 1017.3
20260902063459 78 211 0.0 0.0 0.00 0.00 0.00 78 1017.3
20260902063358 78 211 0.0 0.0 0.00 0.00 0.00 78 1017.3
20260902063256 78 222 0.0 0.0 0.00 0.00 0.00 78 1017.3
20260902063158 78 223 0.0 0.0 0.00 0.00 0.00 78 1017.3
20260902063058 78 223 0.0 0.0 0.00 0.00 0.00 78 1017.4
20260902062957 78 221 0.0 0.0 0.00 0.00 0.00 78 1017.3
20260902062858 78 221 0.0 0.0 0.00 0.00 0.00 78 1017.4
20260902062758 78 221 0.0 0.0 0.00 0.00 0.00 78 1017.3
20260902062659 78 214 0.0 0.0 0.00 0.00 0.00 78 1017.3
20260902062557 78 214 0.0 0.0 0.00 0.00 0.00 78 1017.4
20260902062459 78 214 0.0 0.0 0.00 0.00 0.00 78 1017.3
20260902062357 78 214 0.0 0.0 0.00 0.00 0.00 78 1017.3
20260902062258 78 214 0.0 0.0 0.00 0.00 0.00 78 1017.4
20260902062157 78 214 0.0 0.0 0.00 0.00 0.00 78 1017.4
20260902061958 78 214 0.0 0.0 0.00 0.00 0.00 78 1017.3
20260902061858 78 214 0.0 0.0 0.00 0.00 0.00 78 1017.3
20260902061557 78 214 0.0 0.0 0.00 0.00 0.00 78 1017.3
20260902061357 78 214 0.0 0.0 0.00 0.00 0.00 78 1017.3
20260902061159 78 214 0.0 0.0 0.00 0.00 0.00 78 1017.3
20260902060958 78 214 0.0 0.0 0.00 0.00 0.00 78 1017.4
20260902060857 78 214 0.0 0.0 0.00 0.00 0.00 78 1017.3
20260902060758 78 214 0.0 0.0 0.00 0.00 0.00 78 1017.4
20260902060657 78 214 0.0 0.0 0.00 0.00 0.00 78 1017.4
20260902060457 78 207 0.0 0.0 0.00 0.00 0.00 78 1017.4
20260902060359 78 203 0.0 0.0 0.00 0.00 0.00 78 1017.3
20260902060158 78 203 0.0 0.0 0.00 0.00 0.00 78 1017.3
20260902055959 78 203 0.0 0.0 0.00 0.00 0.00 78 1017.3
20260902055858 78 203 0.0 0.0 0.00 0.00 0.00 78 1017.4
20260902055757 78 203 0.0 0.0 0.00 0.00 0.00 78 1017.4
20260902055658 78 203 0.0 0.0 0.00 0.00 0.00 78 1017.3
20260902055557 78 203 0.0 0.0 0.00 0.00 0.00 78 1017.4
20260902055459 78 203 0.0 0.0 0.00 0.00 0.00 78 1017.4
20260902055401 78 203 0.0 0.0 0.00 0.00 0.00 78 1017.3
20260902055257 78 203 0.0 0.0 0.00 0.00 0.00 78 1017.4
20260902055159 78 203 0.0 0.0 0.00 0.00 0.00 78 1017.4
20260902055057 78 203 0.0 0.0 0.00 0.00 0.00 78 1017.4
20260902054957 78 203 0.0 0.0 0.00 0.00 0.00 78 1017.4
20260902054857 78 203 0.0 0.0 0.00 0.00 0.00 78 1017.4
20260902054759 78 203 0.0 0.0 0.00 0.00 0.00 78 1017.4
20260902054657 79 203 0.0 0.0 0.00 0.00 0.00 78 1017.4
20260902054457 79 203 0.0 0.0 0.00 0.00 0.00 78 1017.4
20260902054358 79 203 0.0 0.0 0.00 0.00 0.00 78 1017.4
20260902054257 79 203 0.0 0.0 0.00 0.00 0.00 78 1017.4
20260902054158 79 203 0.0 0.0 0.00 0.00 0.00 77 1017.4
20260902053958 79 203 0.0 0.0 0.00 0.00 0.00 77 1017.3
20260902053857 79 203 0.0 0.0 0.00 0.00 0.00 77 1017.4
20260902053758 79 203 0.0 0.0 0.00 0.00 0.00 77 1017.4
20260902053658 79 203 0.0 0.0 0.00 0.00 0.00 77 1017.4
20260902053557 79 203 0.0 0.0 0.00 0.00 0.00 77 1017.4
20260902053358 79 203 0.0 0.0 0.00 0.00 0.00 77 1017.4
20260902053259 79 203 0.0 0.0 0.00 0.00 0.00 77 1017.4
20260902053157 79 203 0.0 0.0 0.00 0.00 0.00 77 1017.4
20260902053057 79 203 0.0 0.0 0.00 0.00 0.00 77 1017.4
20260902052958 79 203 0.0 0.0 0.00 0.00 0.00 77 1017.4
20260902052858 79 203 0.0 0.0 0.00 0.00 0.00 77 1017.4
20260902052757 79 203 0.0 0.0 0.00 0.00 0.00 77 1017.3
20260902052657 79 203 0.0 0.0 0.00 0.00 0.00 77 1017.4
20260902052557 79 203 0.0 0.0 0.00 0.00 0.00 77 1017.4
20260902052359 79 203 0.0 0.0 0.00 0.00 0.00 77 1017.4
20260902052159 79 203 0.0 0.0 0.00 0.00 0.00 77 1017.4
20260902052058 79 203 0.0 0.0 0.00 0.00 0.00 77 1017.3
20260902051858 79 203 0.0 0.0 0.00 0.00 0.00 77 1017.4
20260902051759 79 203 0.0 0.0 0.00 0.00 0.00 77 1017.3
20260902051658 79 203 0.0 0.0 0.00 0.00 0.00 77 1017.4
20260902051459 79 193 0.0 0.0 0.00 0.00 0.00 77 1017.3
20260902051357 79 193 0.0 0.0 0.00 0.00 0.00 77 1017.3
20260902051257 79 193 0.0 0.0 0.00 0.00 0.00 77 1017.4
20260902051157 79 193 0.0 0.0 0.00 0.00 0.00 77 1017.4
20260902051057 79 193 0.0 0.0 0.00 0.00 0.00 77 1017.3
20260902050959 79 193 0.0 0.0 0.00 0.00 0.00 77 1017.4
20260902050857 79 192 0.0 0.0 0.00 0.00 0.00 77 1017.4
20260902050756 79 192 0.0 0.0 0.00 0.00 0.00 77 1017.3
20260902050658 79 192 0.0 0.0 0.00 0.00 0.00 77 1017.4
20260902050459 79 198 0.0 0.0 0.00 0.00 0.00 77 1017.4
20260902050358 79 198 0.0 0.0 0.00 0.00 0.00 77 1017.4
20260902050259 79 200 0.0 0.0 0.00 0.00 0.00 77 1017.4
20260902050157 79 200 0.0 0.0 0.00 0.00 0.00 77 1017.4
20260902050059 79 200 0.0 0.0 0.00 0.00 0.00 77 1017.4
20260902045959 79 200 0.0 0.0 0.00 0.00 0.00 77 1017.6
20260902045757 79 200 0.0 0.0 0.00 0.00 0.00 77 1017.5
20260902045700 79 200 0.0 0.0 0.00 0.00 0.00 77 1017.5
20260902045559 79 200 0.0 0.0 0.00 0.00 0.00 77 1017.5
20260902045458 79 200 0.0 0.0 0.00 0.00 0.00 76 1017.5
20260902045400 79 200 0.0 0.0 0.00 0.00 0.00 76 1017.5
20260902045300 79 200 0.0 0.0 0.00 0.00 0.00 76 1017.5
20260902045200 79 200 0.0 0.0 0.00 0.00 0.00 76 1017.4
20260902045058 79 200 0.0 0.0 0.00 0.00 0.00 76 1017.5
20260902044959 79 223 0.0 0.0 0.00 0.00 0.00 76 1017.5
20260902044859 79 223 0.0 0.0 0.00 0.00 0.00 76 1017.4
20260902044759 79 223 0.0 0.0 0.00 0.00 0.00 76 1017.5
20260902044659 79 223 0.0 0.0 0.00 0.00 0.00 76 1017.4
20260902044559 79 223 0.0 0.0 0.00 0.00 0.00 76 1017.5
20260902044458 79 223 0.0 0.0 0.00 0.00 0.00 76 1017.5
20260902044358 79 223 0.0 0.0 0.00 0.00 0.00 76 1017.5
20260902044258 79 223 0.0 0.0 0.00 0.00 0.00 76 1017.5
20260902044201 79 206 0.0 0.0 0.00 0.00 0.00 76 1017.4
20260902044058 79 207 0.0 0.0 0.00 0.00 0.00 76 1017.5
20260902043958 79 207 0.0 0.0 0.00 0.00 0.00 76 1017.5
20260902043858 79 206 0.0 0.0 0.00 0.00 0.00 76 1017.5
20260902043659 80 206 0.0 0.0 0.00 0.00 0.00 76 1017.5
20260902043559 80 207 0.0 0.0 0.00 0.00 0.00 76 1017.4
20260902043459 80 206 0.0 0.0 0.00 0.00 0.00 76 1017.5
20260902043301 80 206 0.0 0.0 0.00 0.00 0.00 75 1017.4
20260902043159 80 206 0.0 0.0 0.00 0.00 0.00 75 1017.4
20260902043100 80 207 0.0 0.0 0.00 0.00 0.00 75 1017.4
20260902043001 80 206 0.0 0.0 0.00 0.00 0.00 75 1017.4
20260902042859 80 206 0.0 0.0 0.00 0.00 0.00 75 1017.4
20260902042559 80 206 0.0 0.0 0.00 0.00 0.00 75 1017.5
20260902042458 80 207 0.0 0.0 0.00 0.00 0.00 75 1017.4
20260902042359 80 206 0.0 0.0 0.00 0.00 0.00 75 1017.5
20260902042300 80 207 0.0 0.0 0.00 0.00 0.00 75 1017.5
20260902042158 80 207 0.0 0.0 0.00 0.00 0.00 75 1017.4
20260902042059 80 206 0.0 0.0 0.00 0.00 0.00 75 1017.4
20260902042000 80 207 0.0 0.0 0.00 0.00 0.00 75 1017.4
20260902041759 80 207 0.0 0.0 0.00 0.00 0.00 74 1017.4
20260902041659 80 206 0.0 0.0 0.00 0.00 0.00 74 1017.4
20260902041459 80 206 0.0 0.0 0.00 0.00 0.00 74 1017.4
20260902041359 80 206 0.0 0.0 0.00 0.00 0.00 74 1017.3
20260902041300 80 206 0.0 0.0 0.00 0.00 0.00 74 1017.3
20260902041159 80 206 0.0 0.0 0.00 0.00 0.00 74 1017.3
20260902040859 80 196 0.0 0.0 0.00 0.00 0.00 74 1017.4
20260902040759 80 196 0.0 0.0 0.00 0.00 0.00 73 1017.4
20260902040700 80 196 0.0 0.0 0.00 0.00 0.00 73 1017.3
20260902040600 80 196 0.0 0.0 0.00 0.00 0.00 73 1017.4
20260902040459 80 196 0.0 0.0 0.00 0.00 0.00 73 1017.4
20260902040358 80 196 0.0 0.0 0.00 0.00 0.00 73 1017.5
20260902040258 80 196 0.0 0.0 0.00 0.00 0.00 73 1017.5
20260902040159 80 196 0.0 0.0 0.00 0.00 0.00 73 1017.5
20260902035858 81 196 0.0 0.0 0.00 0.00 0.00 73 1017.5
20260902035800 81 196 0.0 0.0 0.00 0.00 0.00 73 1017.5
20260902035659 81 196 0.0 0.0 0.00 0.00 0.00 73 1017.5
20260902035558 81 196 0.0 0.0 0.00 0.00 0.00 73 1017.5
20260902035458 81 196 0.0 0.0 0.00 0.00 0.00 73 1017.5
20260902035400 81 196 0.0 0.0 0.00 0.00 0.00 73 1017.5
20260902035258 81 196 0.0 0.0 0.00 0.00 0.00 73 1017.5
20260902035158 81 196 0.0 0.0 0.00 0.00 0.00 73 1017.4
20260902035058 81 196 0.0 0.0 0.00 0.00 0.00 73 1017.4
20260902034958 81 196 0.0 0.0 0.00 0.00 0.00 72 1017.4
20260902034859 81 196 0.0 0.0 0.00 0.00 0.00 72 1017.5
20260902034758 81 196 0.0 0.0 0.00 0.00 0.00 72 1017.4
20260902034658 81 196 0.0 0.0 0.00 0.00 0.00 72 1017.4
20260902034558 81 196 0.0 0.0 0.00 0.00 0.00 72 1017.4
20260902034459 81 196 0.0 0.0 0.00 0.00 0.00 72 1017.4
20260902034359 81 196 0.0 0.0 0.00 0.00 0.00 72 1017.5
20260902034259 81 196 0.0 0.0 0.00 0.00 0.00 72 1017.5
20260902034158 81 196 0.0 0.0 0.00 0.00 0.00 72 1017.5
20260902034059 81 196 0.0 0.0 0.00 0.00 0.00 72 1017.5
20260902033958 81 196 0.0 0.0 0.00 0.00 0.00 72 1017.5
20260902033858 81 196 0.0 0.0 0.00 0.00 0.00 72 1017.5
20260902033758 81 196 0.0 0.0 0.00 0.00 0.00 72 1017.6
20260902033658 81 194 0.0 0.0 0.00 0.00 0.00 72 1017.5
20260902033459 81 194 0.0 0.0 0.00 0.00 0.00 72 1017.5
20260902033358 81 194 0.0 0.0 0.00 0.00 0.00 72 1017.5
20260902033258 81 194 0.0 0.0 0.00 0.00 0.00 72 1017.5
20260902033158 81 194 0.0 0.0 0.00 0.00 0.00 72 1017.5
20260902033058 81 194 0.0 0.0 0.00 0.00 0.00 72 1017.5
20260902033000 81 194 0.0 0.0 0.00 0.00 0.00 72 1017.5
20260902032900 81 194 0.0 0.0 0.00 0.00 0.00 72 1017.5
20260902032100 81 250 0.0 0.0 0.00 0.00 0.00 72 1017.4
20260902031803 81 248 0.0 0.0 0.00 0.00 0.00 72 1017.4
20260902031700 81 267 0.0 0.0 0.00 0.00 0.00 73 1017.4
20260902031605 81 268 0.0 0.0 0.00 0.00 0.00 73 1017.4
20260902031508 81 257 0.0 0.0 0.00 0.00 0.00 73 1017.4
20260902031404 81 257 0.0 0.0 0.00 0.00 0.00 73 1017.4
20260902031301 81 258 0.0 0.0 0.00 0.00 0.00 73 1017.4
20260902031103 81 258 0.0 0.0 0.00 0.00 0.00 73 1017.4
20260902031001 81 258 0.0 0.0 0.00 0.00 0.00 73 1017.4
20260902030759 81 153 0.0 0.0 0.00 0.00 0.00 73 1017.4
20260902030707 81 269 0.0 0.0 0.00 0.00 0.00 73 1017.4
20260902030502 81 202 0.0 0.0 0.00 0.00 0.00 73 1017.4
20260902030359 81 202 0.0 0.0 0.00 0.00 0.00 73 1017.4
20260902030306 81 202 0.0 0.0 0.00 0.00 0.00 73 1017.4
20260902030200 81 202 0.0 0.0 0.00 0.00 0.00 73 1017.4
20260902030059 81 202 0.0 0.0 0.00 0.00 0.00 73 1017.4
20260902025959 81 202 0.0 0.0 0.00 0.00 0.00 73 1017.3
20260902025858 81 202 0.0 0.0 0.00 0.00 0.00 73 1017.3
20260902025659 81 202 0.0 0.0 0.00 0.00 0.00 73 1017.4
20260902025600 81 202 0.0 0.0 0.00 0.00 0.00 73 1017.4
20260902025458 81 202 0.0 0.0 0.00 0.00 0.00 73 1017.4
20260902025300 81 202 0.0 0.0 0.00 0.00 0.00 73 1017.4
20260902025158 81 202 0.0 0.0 0.00 0.00 0.00 73 1017.5
20260902025058 81 202 0.0 0.0 0.00 0.00 0.00 73 1017.5
20260902024958 81 202 0.0 0.0 0.00 0.00 0.00 73 1017.4
20260902024858 81 202 0.0 0.0 0.00 0.00 0.00 73 1017.4
20260902024758 81 202 0.0 0.0 0.00 0.00 0.00 73 1017.4
20260902024558 81 202 0.0 0.0 0.00 0.00 0.00 73 1017.5
20260902024500 81 202 0.0 0.0 0.00 0.00 0.00 73 1017.4
20260902024358 81 202 0.0 0.0 0.00 0.00 0.00 73 1017.5
20260902024159 81 202 0.0 0.0 0.00 0.00 0.00 73 1017.5
20260902024058 81 202 0.0 0.0 0.00 0.00 0.00 73 1017.5
20260902023959 81 202 0.0 0.0 0.00 0.00 0.00 73 1017.5
20260902023900 81 202 0.0 0.0 0.00 0.00 0.00 73 1017.4
20260902023758 81 202 0.0 0.0 0.00 0.00 0.00 73 1017.4
20260902023659 81 202 0.0 0.0 0.00 0.00 0.00 74 1017.5
20260902023559 81 202 0.0 0.0 0.00 0.00 0.00 74 1017.5
20260902023458 81 202 0.0 0.0 0.00 0.00 0.00 74 1017.5
20260902023359 81 202 0.0 0.0 0.00 0.00 0.00 73 1017.5
20260902023257 81 202 0.0 0.0 0.00 0.00 0.00 73 1017.5
20260902023159 81 202 0.0 0.0 0.00 0.00 0.00 73 1017.4
20260902023059 81 202 0.0 0.0 0.00 0.00 0.00 73 1017.5
20260902022958 81 202 0.0 0.0 0.00 0.00 0.00 73 1017.5
20260902022859 81 202 0.0 0.0 0.00 0.00 0.00 73 1017.6
20260902022759 81 202 0.0 0.0 0.00 0.00 0.00 73 1017.5
20260902022558 81 202 0.0 0.0 0.00 0.00 0.00 73 1017.5
20260902022459 81 202 0.0 0.0 0.00 0.00 0.00 73 1017.5
20260902022358 81 202 0.0 0.0 0.00 0.00 0.00 73 1017.5
20260902022158 81 202 0.0 0.0 0.00 0.00 0.00 73 1017.6
20260902022101 81 202 0.0 0.0 0.00 0.00 0.00 73 1017.5
20260902022002 81 202 0.0 0.0 0.00 0.00 0.00 73 1017.6
20260902021858 82 202 0.0 0.0 0.00 0.00 0.00 73 1017.5
20260902021759 82 202 0.0 0.0 0.00 0.00 0.00 73 1017.5
20260902021558 82 202 0.0 0.0 0.00 0.00 0.00 73 1017.4
20260902021458 82 202 0.0 0.0 0.00 0.00 0.00 73 1017.5
20260902021358 82 202 0.0 0.0 0.00 0.00 0.00 72 1017.5
20260902021100 82 202 0.0 0.0 0.00 0.00 0.00 73 1017.5
20260902020957 82 202 0.0 0.0 0.00 0.00 0.00 72 1017.5
20260902020859 82 202 0.0 0.0 0.00 0.00 0.00 73 1017.5
20260902020800 82 202 0.0 0.0 0.00 0.00 0.00 72 1017.6
20260902020658 82 202 0.0 0.0 0.00 0.00 0.00 72 1017.5
20260902020558 82 202 0.0 0.0 0.00 0.00 0.00 72 1017.5
20260902020458 82 202 0.0 0.0 0.00 0.00 0.00 72 1017.5
20260902020258 82 202 0.0 0.0 0.00 0.00 0.00 72 1017.5
20260902020158 82 202 0.0 0.0 0.00 0.00 0.00 72 1017.5
20260902020100 82 202 0.0 0.0 0.00 0.00 0.00 72 1017.6
20260902015758 82 202 0.0 0.0 0.00 0.00 0.00 71 1017.6
20260902015659 83 202 0.0 0.0 0.00 0.00 0.00 71 1017.5
20260902015557 83 202 0.0 0.0 0.00 0.00 0.00 71 1017.5
20260902015458 83 202 0.0 0.0 0.00 0.00 0.00 71 1017.5
20260902015400 83 202 0.0 0.0 0.00 0.00 0.00 71 1017.5
20260902015158 83 202 0.0 0.0 0.00 0.00 0.00 71 1017.5
20260902015058 83 202 0.0 0.0 0.00 0.00 0.00 71 1017.5
20260902014958 83 202 0.0 0.0 0.00 0.00 0.00 71 1017.5
20260902014859 83 202 0.0 0.0 0.00 0.00 0.00 70 1017.5
20260902014758 83 202 0.0 0.0 0.00 0.00 0.00 71 1017.5
20260902014458 83 202 0.0 0.0 0.00 0.00 0.00 70 1017.5
20260902014400 83 202 0.0 0.0 0.00 0.00 0.00 71 1017.5
20260902014259 83 202 0.0 0.0 0.00 0.00 0.00 71 1017.5
20260902014200 83 202 0.0 0.0 0.00 0.00 0.00 70 1017.4
20260902014100 83 202 0.0 0.0 0.00 0.00 0.00 70 1017.5
20260902013959 83 202 0.0 0.0 0.00 0.00 0.00 70 1017.4
20260902013859 83 202 0.0 0.0 0.00 0.00 0.00 70 1017.5
20260902013758 83 202 0.0 0.0 0.00 0.00 0.00 70 1017.4
20260902013659 83 202 0.0 0.0 0.00 0.00 0.00 70 1017.4
20260902013559 83 202 0.0 0.0 0.00 0.00 0.00 70 1017.5
20260902013459 83 202 0.0 0.0 0.00 0.00 0.00 70 1017.4
20260902013359 83 202 0.0 0.0 0.00 0.00 0.00 70 1017.4
20260902013300 83 202 0.0 0.0 0.00 0.00 0.00 70 1017.5
20260902013059 83 202 0.0 0.0 0.00 0.00 0.00 69 1017.4
20260902012958 83 202 0.0 0.0 0.00 0.00 0.00 69 1017.5
20260902012858 83 193 0.0 0.0 0.00 0.00 0.00 69 1017.5
20260902012759 83 193 0.0 0.0 0.00 0.00 0.00 69 1017.4
20260902012659 83 193 0.0 0.0 0.00 0.00 0.00 69 1017.4
20260902012559 84 193 0.0 0.0 0.00 0.00 0.00 69 1017.4
20260902012501 84 193 0.0 0.0 0.00 0.00 0.00 69 1017.4
20260902012359 84 193 0.0 0.0 0.00 0.00 0.00 69 1017.3
20260902012259 84 193 0.0 0.0 0.00 0.00 0.00 69 1017.3
20260902012158 84 193 0.0 0.0 0.00 0.00 0.00 69 1017.3
20260902012059 84 193 0.0 0.0 0.00 0.00 0.00 69 1017.3
20260902011900 84 193 0.0 0.0 0.00 0.00 0.00 69 1017.3
20260902011759 84 193 0.0 0.0 0.00 0.00 0.00 69 1017.2
20260902011659 84 193 0.0 0.0 0.00 0.00 0.00 69 1017.3
20260902011558 84 193 0.0 0.0 0.00 0.00 0.00 69 1017.2
20260902011458 84 193 0.0 0.0 0.00 0.00 0.00 69 1017.2
20260902011400 84 193 0.0 0.0 0.00 0.00 0.00 68 1017.1
20260902011258 84 193 0.0 0.0 0.00 0.00 0.00 68 1017.1
20260902011158 84 193 0.0 0.0 0.00 0.00 0.00 68 1017.0
20260902011058 84 193 0.0 0.0 0.00 0.00 0.00 68 1017.0
20260902010958 84 193 0.0 0.0 0.00 0.00 0.00 68 1017.0
20260902010901 84 193 0.0 0.0 0.00 0.00 0.00 68 1017.0
20260902010800 84 193 0.0 0.0 0.00 0.00 0.00 68 1017.0
20260902010658 84 193 0.0 0.0 0.00 0.00 0.00 68 1016.9
20260902010559 84 193 0.0 0.0 0.00 0.00 0.00 68 1016.9
20260902010500 84 193 0.0 0.0 0.00 0.00 0.00 67 1016.9
20260902010359 85 193 0.0 0.0 0.00 0.00 0.00 67 1016.9
20260902010258 85 193 0.0 0.0 0.00 0.00 0.00 67 1016.9
20260902010158 85 193 0.0 0.0 0.00 0.00 0.00 67 1016.9
20260902010058 85 193 0.0 0.0 0.00 0.00 0.00 67 1016.8
20260902005958 85 193 0.0 0.0 0.00 0.00 0.00 67 1016.9
20260902005859 85 193 0.0 0.0 0.00 0.00 0.00 66 1016.8
20260902005759 85 193 0.0 0.0 0.00 0.00 0.00 66 1016.8
20260902005559 85 193 0.0 0.0 0.00 0.00 0.00 66 1016.8
20260902005500 85 193 0.0 0.0 0.00 0.00 0.00 66 1016.8
20260902005258 85 193 0.0 0.0 0.00 0.00 0.00 66 1016.8
20260902005058 85 193 0.0 0.0 0.00 0.00 0.00 65 1016.8
20260902004959 85 193 0.0 0.0 0.00 0.00 0.00 65 1016.7
20260902004859 85 193 0.0 0.0 0.00 0.00 0.00 65 1016.7
20260902004803 86 193 0.0 0.0 0.00 0.00 0.00 65 1016.8
20260902004658 86 193 0.0 0.0 0.00 0.00 0.00 65 1016.7
20260902004400 86 193 0.0 0.0 0.00 0.00 0.00 64 1016.8
20260902004259 86 193 0.0 0.0 0.00 0.00 0.00 64 1016.7
20260902004158 86 193 0.0 0.0 0.00 0.00 0.00 64 1016.8
20260902004058 86 193 0.0 0.0 0.00 0.00 0.00 64 1016.8
20260902003959 86 193 0.0 0.0 0.00 0.00 0.00 64 1016.8
20260902003859 86 193 0.0 0.0 0.00 0.00 0.00 64 1016.7
20260902003702 86 193 0.0 0.0 0.00 0.00 0.00 63 1016.8
20260902003559 86 193 0.0 0.0 0.00 0.00 0.00 64 1016.8
20260902003459 86 193 0.0 0.0 0.00 0.00 0.00 63 1016.8
20260902003258 86 193 0.0 0.0 0.00 0.00 0.00 62 1016.9
20260902003100 87 200 0.0 0.0 0.00 0.00 0.00 63 1016.8
20260902002959 87 168 0.0 0.0 0.00 0.00 0.00 62 1016.8
20260902002858 87 168 0.0 0.0 0.00 0.00 0.00 62 1016.9
20260902002759 87 168 0.0 0.0 0.00 0.00 0.00 62 1016.9
20260902002658 87 166 0.0 0.0 0.00 0.00 0.00 62 1016.9
20260902002559 87 166 0.0 0.0 0.00 0.00 0.00 62 1016.9
20260902002458 87 166 0.0 0.0 0.00 0.00 0.00 62 1017.0
20260902002358 87 166 0.0 0.0 0.00 0.00 0.00 62 1017.0
20260902002306 87 166 0.0 0.0 0.00 0.00 0.00 61 1017.0
20260902002201 87 159 0.0 0.0 0.00 0.00 0.00 61 1017.0
20260902002059 87 159 0.0 0.0 0.00 0.00 0.00 61 1017.0
20260902001759 87 154 0.0 0.0 0.00 0.00 0.00 61 1017.0
20260902001600 87 204 0.0 0.0 0.00 0.00 0.00 61 1017.1
20260902001458 88 204 0.0 0.0 0.00 0.00 0.00 61 1017.1
20260902001358 88 204 0.0 0.0 0.00 0.00 0.00 61 1017.1
20260902001158 88 181 0.0 0.0 0.00 0.00 0.00 61 1017.1
20260902001059 88 181 0.0 0.0 0.00 0.00 0.00 61 1017.1
20260902000958 88 178 0.0 0.0 0.00 0.00 0.00 61 1017.1
20260902000858 88 178 0.0 0.0 0.00 0.00 0.00 60 1017.1
20260902000800 88 178 0.0 0.9 0.00 0.00 0.00 60 1017.1
20260902000658 88 228 0.0 0.9 0.00 0.00 0.00 60 1017.0
20260902000459 88 229 0.0 0.9 0.00 0.00 0.00 60 1017.1
20260902000359 88 227 0.0 0.9 0.00 0.00 0.00 60 1017.1
20260902000259 88 227 0.0 1.7 0.00 0.00 0.00 60 1017.1
20260902000000 88 231 0.0 2.6 0.00 0.00 0.00 60 1017.1
20260901235858 88 178 0.0 2.6 0.00 0.00 0.00 60 1017.2
20260901235759 88 179 0.0 2.6 0.00 0.00 0.00 60 1017.1
20260901235658 89 219 0.0 3.5 0.00 0.00 0.00 60 1017.1
20260901235600 89 197 0.0 3.5 0.00 0.00 0.00 60 1017.2
20260901235458 89 190 0.0 3.5 0.00 0.00 0.00 60 1017.2
20260901235359 89 161 0.0 3.5 0.00 0.00 0.00 60 1017.1
20260901235258 89 153 0.0 3.5 0.00 0.00 0.00 60 1017.1
20260901235158 89 151 1.7 3.5 0.00 0.00 0.00 60 1017.1
20260901235058 89 161 1.7 3.5 0.00 0.00 0.00 60 1017.2
20260901234958 89 179 0.0 3.5 0.00 0.00 0.00 60 1017.1
20260901234800 89 169 0.0 4.3 0.00 0.00 0.00 60 1017.2
20260901234658 89 229 0.0 4.3 0.00 0.00 0.00 60 1017.2
20260901234559 89 218 0.0 4.3 0.00 0.00 0.00 60 1017.2
20260901234358 89 187 1.7 4.3 0.00 0.00 0.00 60 1017.2
20260901234201 89 195 0.0 4.3 0.00 0.00 0.00 60 1017.3
20260901234057 89 185 0.0 4.3 0.00 0.00 0.00 60 1017.3
20260901234000 89 169 0.9 4.3 0.00 0.00 0.00 59 1017.3
20260901233858 89 209 0.0 1.7 0.00 0.00 0.00 60 1017.3
20260901233758 89 209 0.0 2.6 0.00 0.00 0.00 59 1017.2
20260901233601 89 176 0.9 4.3 0.00 0.00 0.00 59 1017.2
20260901233459 90 185 0.0 4.3 0.00 0.00 0.00 59 1017.3
20260901233358 90 211 0.0 4.3 0.00 0.00 0.00 60 1017.2
20260901233258 90 171 0.0 4.3 0.00 0.00 0.00 60 1017.3
20260901233159 90 175 0.0 4.3 0.00 0.00 0.00 59 1017.3
20260901233059 90 169 0.9 4.3 0.00 0.00 0.00 59 1017.3
20260901232958 90 175 0.9 4.3 0.00 0.00 0.00 59 1017.2
20260901232902 90 211 4.3 4.3 0.00 0.00 0.00 59 1017.3
20260901232759 90 173 0.0 4.3 0.00 0.00 0.00 60 1017.3
20260901232658 90 178 0.9 4.3 0.00 0.00 0.00 60 1017.2
20260901232558 90 215 0.9 4.3 0.00 0.00 0.00 60 1017.3
20260901232458 90 221 0.0 4.3 0.00 0.00 0.00 60 1017.2
20260901232402 90 198 0.9 4.3 0.00 0.00 0.00 59 1017.3
20260901232158 90 294 0.9 4.3 0.00 0.00 0.00 59 1017.3
20260901232059 90 261 0.0 4.3 0.00 0.00 0.00 59 1017.3
20260901231958 90 173 0.9 4.3 0.00 0.00 0.00 59 1017.1
20260901231858 90 211 0.0 3.5 0.00 0.00 0.00 59 1017.3